Wetterdaten: Dienstag, 30.07.2013
Datum Zeit Temp. Aussen +5cm Feuchte Auss Luftdruck Regen Sonnenschein T BodenTemp UV Solar Windben
30.07.2013 00:00 18,7 C 17,3 C 80 % 1016,6 hPa 0,0 l/m 0 min 0 min 0,0 UV-I 0 W/m 0,0 km/h (0 Bft)
30.07.2013 00:02 18,6 C 17,3 C 80 % 1016,7 hPa 0,0 l/m 0 min 0 min 0,0 UV-I 0 W/m 0,0 km/h (0 Bft)
30.07.2013 00:06 18,6 C 17,3 C 80 % 1016,6 hPa 0,0 l/m 0 min 0 min 0,0 UV-I 0 W/m 0,0 km/h (0 Bft)
30.07.2013 00:08 18,6 C 17,3 C 80 % 1016,7 hPa 0,0 l/m 0 min 0 min 0,0 UV-I 0 W/m 0,0 km/h (0 Bft)
30.07.2013 00:10 18,6 C 17,3 C 80 % 1016,7 hPa 0,0 l/m 0 min 0 min 0,0 UV-I 0 W/m 2,6 km/h (1 Bft)
30.07.2013 00:12 18,6 C 17,3 C 80 % 1016,7 hPa 0,0 l/m 0 min 0 min 0,0 UV-I 0 W/m 0,0 km/h (0 Bft)
30.07.2013 00:14 18,6 C 17,3 C 80 % 1016,7 hPa 0,0 l/m 0 min 0 min 0,0 UV-I 0 W/m 2,6 km/h (1 Bft)
30.07.2013 00:16 18,6 C 17,3 C 81 % 1016,7 hPa 0,0 l/m 0 min 0 min 0,0 UV-I 0 W/m 0,0 km/h (0 Bft)
30.07.2013 00:18 18,6 C 17,3 C 81 % 1016,7 hPa 0,0 l/m 0 min 0 min 0,0 UV-I 0 W/m 0,0 km/h (0 Bft)
30.07.2013 00:20 18,6 C 17,3 C 81 % 1016,7 hPa 0,0 l/m 0 min 0 min 0,0 UV-I 0 W/m 0,0 km/h (0 Bft)
30.07.2013 00:22 18,6 C 17,3 C 81 % 1016,8 hPa 0,0 l/m 0 min 0 min 0,0 UV-I 0 W/m 0,0 km/h (0 Bft)
30.07.2013 00:24 18,6 C 17,3 C 81 % 1016,7 hPa 0,0 l/m 0 min 0 min 0,0 UV-I 0 W/m 2,6 km/h (1 Bft)
30.07.2013 00:26 18,6 C 17,3 C 81 % 1016,8 hPa 0,0 l/m 0 min 0 min 0,0 UV-I 0 W/m 0,0 km/h (0 Bft)
30.07.2013 00:28 18,6 C 17,3 C 81 % 1017,0 hPa 0,0 l/m 0 min 0 min 0,0 UV-I 0 W/m 0,0 km/h (0 Bft)
30.07.2013 00:30 18,6 C 17,3 C 81 % 1017,0 hPa 0,0 l/m 0 min 0 min 0,0 UV-I 0 W/m 0,0 km/h (0 Bft)
30.07.2013 00:32 18,6 C 17,3 C 82 % 1017,2 hPa 0,0 l/m 0 min 0 min 0,0 UV-I 0 W/m 10,3 km/h (2 Bft)
30.07.2013 00:34 18,6 C 17,9 C 82 % 1017,1 hPa 0,0 l/m 0 min 0 min 0,0 UV-I 0 W/m 15,4 km/h (3 Bft)
30.07.2013 00:36 18,6 C 17,9 C 82 % 1016,9 hPa 0,0 l/m 0 min 0 min 0,0 UV-I 0 W/m 10,3 km/h (2 Bft)
30.07.2013 00:38 18,7 C 17,9 C 82 % 1017,0 hPa 0,0 l/m 0 min 0 min 0,0 UV-I 0 W/m 15,4 km/h (3 Bft)
30.07.2013 00:40 18,7 C 17,9 C 81 % 1017,1 hPa 0,0 l/m 0 min 0 min 0,0 UV-I 0 W/m 15,4 km/h (3 Bft)
30.07.2013 00:42 18,8 C 17,9 C 81 % 1017,0 hPa 0,0 l/m 0 min 0 min 0,0 UV-I 0 W/m 18,0 km/h (3 Bft)
30.07.2013 00:44 18,8 C 17,9 C 81 % 1017,0 hPa 0,0 l/m 0 min 0 min 0,0 UV-I 0 W/m 10,3 km/h (2 Bft)
30.07.2013 00:46 18,8 C 17,9 C 80 % 1017,1 hPa 0,0 l/m 0 min 0 min 0,0 UV-I 0 W/m 23,2 km/h (4 Bft)
30.07.2013 00:48 18,8 C 17,9 C 79 % 1017,1 hPa 0,0 l/m 0 min 0 min 0,0 UV-I 0 W/m 18,0 km/h (3 Bft)
30.07.2013 00:50 18,8 C 17,9 C 79 % 1017,0 hPa 0,0 l/m 0 min 0 min 0,0 UV-I 0 W/m 7,7 km/h (2 Bft)
30.07.2013 00:52 18,8 C 17,9 C 78 % 1016,9 hPa 0,0 l/m 0 min 0 min 0,0 UV-I 0 W/m 25,7 km/h (4 Bft)
30.07.2013 00:54 18,8 C 17,9 C 77 % 1016,9 hPa 0,0 l/m 0 min 0 min 0,0 UV-I 0 W/m 10,3 km/h (2 Bft)
30.07.2013 00:56 18,8 C 17,9 C 77 % 1016,9 hPa 0,0 l/m 0 min 0 min 0,0 UV-I 0 W/m 10,3 km/h (2 Bft)
30.07.2013 00:58 18,7 C 17,9 C 76 % 1016,8 hPa 0,0 l/m 0 min 0 min 0,0 UV-I 0 W/m 20,6 km/h (4 Bft)
30.07.2013 01:00 18,7 C 17,3 C 76 % 1016,8 hPa 0,0 l/m 0 min 0 min 0,0 UV-I 0 W/m 12,9 km/h (3 Bft)
30.07.2013 01:02 18,7 C 17,3 C 76 % 1016,7 hPa 0,0 l/m 0 min 0 min 0,0 UV-I 0 W/m 7,7 km/h (2 Bft)
30.07.2013 01:06 18,6 C 17,3 C 76 % 1016,7 hPa 0,0 l/m 0 min 0 min 0,0 UV-I 0 W/m 7,7 km/h (2 Bft)
30.07.2013 01:08 18,6 C 17,3 C 76 % 1016,7 hPa 0,0 l/m 0 min 0 min 0,0 UV-I 0 W/m 10,3 km/h (2 Bft)
30.07.2013 01:10 18,6 C 17,3 C 75 % 1016,7 hPa 0,0 l/m 0 min 0 min 0,0 UV-I 0 W/m 10,3 km/h (2 Bft)
30.07.2013 01:12 18,6 C 17,3 C 75 % 1016,6 hPa 0,0 l/m 0 min 0 min 0,0 UV-I 0 W/m 10,3 km/h (2 Bft)
30.07.2013 01:14 18,6 C 17,3 C 75 % 1016,6 hPa 0,0 l/m 0 min 0 min 0,0 UV-I 0 W/m 23,2 km/h (4 Bft)
30.07.2013 01:16 18,5 C 17,3 C 75 % 1016,5 hPa 0,0 l/m 0 min 0 min 0,0 UV-I 0 W/m 7,7 km/h (2 Bft)
30.07.2013 01:18 18,5 C 17,3 C 75 % 1016,5 hPa 0,0 l/m 0 min 0 min 0,0 UV-I 0 W/m 0,0 km/h (0 Bft)
30.07.2013 01:20 18,4 C 17,3 C 75 % 1016,5 hPa 0,0 l/m 0 min 0 min 0,0 UV-I 0 W/m 2,6 km/h (1 Bft)
30.07.2013 01:22 18,4 C 16,8 C 77 % 1016,4 hPa 0,0 l/m 0 min 0 min 0,0 UV-I 0 W/m 0,0 km/h (0 Bft)
30.07.2013 01:24 18,3 C 16,2 C 77 % 1016,2 hPa 0,0 l/m 0 min 0 min 0,0 UV-I 0 W/m 0,0 km/h (0 Bft)
30.07.2013 01:26 18,3 C 15,7 C 77 % 1016,1 hPa 0,0 l/m 0 min 0 min 0,0 UV-I 0 W/m 0,0 km/h (0 Bft)
30.07.2013 01:28 18,2 C 15,7 C 78 % 1016,2 hPa 0,0 l/m 0 min 0 min 0,0 UV-I 0 W/m 0,0 km/h (0 Bft)
30.07.2013 01:30 18,1 C 15,7 C 79 % 1016,7 hPa 0,0 l/m 0 min 0 min 0,0 UV-I 0 W/m 0,0 km/h (0 Bft)
30.07.2013 01:32 18,0 C 15,7 C 80 % 1016,7 hPa 0,0 l/m 0 min 0 min 0,0 UV-I 0 W/m 0,0 km/h (0 Bft)
30.07.2013 01:34 17,9 C 15,7 C 80 % 1016,8 hPa 0,0 l/m 0 min 0 min 0,0 UV-I 0 W/m 0,0 km/h (0 Bft)
30.07.2013 01:36 17,8 C 15,7 C 80 % 1016,7 hPa 0,0 l/m 0 min 0 min 0,0 UV-I 0 W/m 12,9 km/h (3 Bft)
30.07.2013 01:38 17,7 C 15,7 C 80 % 1016,8 hPa 0,0 l/m 0 min 0 min 0,0 UV-I 0 W/m 10,3 km/h (2 Bft)
30.07.2013 01:40 17,6 C 15,7 C 80 % 1017,0 hPa 0,0 l/m 0 min 0 min 0,0 UV-I 0 W/m 15,4 km/h (3 Bft)
30.07.2013 01:42 17,4 C 15,7 C 80 % 1016,8 hPa 0,0 l/m 0 min 0 min 0,0 UV-I 0 W/m 15,4 km/h (3 Bft)
30.07.2013 01:44 17,3 C 15,7 C 81 % 1016,9 hPa 0,0 l/m 0 min 0 min 0,0 UV-I 0 W/m 10,3 km/h (2 Bft)
30.07.2013 01:46 17,3 C 15,7 C 81 % 1017,0 hPa 0,0 l/m 0 min 0 min 0,0 UV-I 0 W/m 7,7 km/h (2 Bft)
30.07.2013 01:48 17,2 C 15,7 C 82 % 1017,0 hPa 0,0 l/m 0 min 0 min 0,0 UV-I 0 W/m 7,7 km/h (2 Bft)
30.07.2013 01:50 17,1 C 15,7 C 82 % 1016,9 hPa 0,0 l/m 0 min 0 min 0,0 UV-I 0 W/m 2,6 km/h (1 Bft)
30.07.2013 01:52 16,9 C 15,7 C 83 % 1016,9 hPa 0,0 l/m 0 min 0 min 0,0 UV-I 0 W/m 0,0 km/h (0 Bft)
30.07.2013 01:54 16,8 C 15,7 C 83 % 1016,9 hPa 0,0 l/m 0 min 0 min 0,0 UV-I 0 W/m 0,0 km/h (0 Bft)
30.07.2013 01:56 16,7 C 15,7 C 83 % 1016,9 hPa 0,0 l/m 0 min 0 min 0,0 UV-I 0 W/m 0,0 km/h (0 Bft)
30.07.2013 01:58 16,6 C 15,7 C 84 % 1016,9 hPa 0,0 l/m 0 min 0 min 0,0 UV-I 0 W/m 2,6 km/h (1 Bft)
30.07.2013 02:00 16,6 C 15,1 C 85 % 1016,9 hPa 0,0 l/m 0 min 0 min 0,0 UV-I 0 W/m 0,0 km/h (0 Bft)
30.07.2013 02:02 16,4 C 15,1 C 85 % 1016,9 hPa 0,0 l/m 0 min 0 min 0,0 UV-I 0 W/m 0,0 km/h (0 Bft)
30.07.2013 02:06 16,3 C 15,1 C 86 % 1017,0 hPa 0,0 l/m 0 min 0 min 0,0 UV-I 0 W/m 0,0 km/h (0 Bft)
30.07.2013 02:08 16,3 C 15,1 C 86 % 1017,0 hPa 0,0 l/m 0 min 0 min 0,0 UV-I 0 W/m 2,6 km/h (1 Bft)
30.07.2013 02:10 16,3 C 15,1 C 86 % 1017,0 hPa 0,0 l/m 0 min 0 min 0,0 UV-I 0 W/m 12,9 km/h (3 Bft)
30.07.2013 02:12 16,2 C 15,1 C 87 % 1016,9 hPa 0,0 l/m 0 min 0 min 0,0 UV-I 0 W/m 0,0 km/h (0 Bft)
30.07.2013 02:14 16,2 C 15,1 C 87 % 1016,9 hPa 0,0 l/m 0 min 0 min 0,0 UV-I 0 W/m 0,0 km/h (0 Bft)
30.07.2013 02:16 16,2 C 15,1 C 87 % 1016,9 hPa 0,0 l/m 0 min 0 min 0,0 UV-I 0 W/m 0,0 km/h (0 Bft)
30.07.2013 02:18 16,2 C 15,1 C 87 % 1017,1 hPa 0,0 l/m 0 min 0 min 0,0 UV-I 0 W/m 0,0 km/h (0 Bft)
30.07.2013 02:20 16,2 C 15,1 C 87 % 1017,1 hPa 0,0 l/m 0 min 0 min 0,0 UV-I 0 W/m 0,0 km/h (0 Bft)
30.07.2013 02:22 16,2 C 15,1 C 87 % 1017,0 hPa 0,0 l/m 0 min 0 min 0,0 UV-I 0 W/m 2,6 km/h (1 Bft)
30.07.2013 02:24 16,2 C 15,1 C 87 % 1017,0 hPa 0,0 l/m 0 min 0 min 0,0 UV-I 0 W/m 0,0 km/h (0 Bft)
30.07.2013 02:26 16,2 C 15,1 C 87 % 1017,1 hPa 0,0 l/m 0 min 0 min 0,0 UV-I 0 W/m 0,0 km/h (0 Bft)
30.07.2013 02:28 16,2 C 15,1 C 88 % 1017,1 hPa 0,0 l/m 0 min 0 min 0,0 UV-I 0 W/m 2,6 km/h (1 Bft)
30.07.2013 02:30 16,2 C 15,1 C 88 % 1017,0 hPa 0,0 l/m 0 min 0 min 0,0 UV-I 0 W/m 0,0 km/h (0 Bft)
30.07.2013 02:32 16,2 C 15,7 C 88 % 1017,1 hPa 0,0 l/m 0 min 0 min 0,0 UV-I 0 W/m 0,0 km/h (0 Bft)
30.07.2013 02:34 16,2 C 15,7 C 88 % 1017,1 hPa 0,0 l/m 0 min 0 min 0,0 UV-I 0 W/m 0,0 km/h (0 Bft)
30.07.2013 02:36 16,2 C 15,7 C 88 % 1017,1 hPa 0,0 l/m 0 min 0 min 0,0 UV-I 0 W/m 7,7 km/h (2 Bft)
30.07.2013 02:38 16,2 C 15,7 C 88 % 1017,1 hPa 0,0 l/m 0 min 0 min 0,0 UV-I 0 W/m 5,1 km/h (1 Bft)
30.07.2013 02:40 16,2 C 15,7 C 88 % 1017,2 hPa 0,0 l/m 0 min 0 min 0,0 UV-I 0 W/m 0,0 km/h (0 Bft)
30.07.2013 02:42 16,2 C 15,7 C 88 % 1017,2 hPa 0,0 l/m 0 min 0 min 0,0 UV-I 0 W/m 0,0 km/h (0 Bft)
30.07.2013 02:44 16,2 C 15,7 C 88 % 1017,3 hPa 0,0 l/m 0 min 0 min 0,0 UV-I 0 W/m 0,0 km/h (0 Bft)
30.07.2013 02:46 16,2 C 15,7 C 88 % 1017,3 hPa 0,0 l/m 0 min 0 min 0,0 UV-I 0 W/m 2,6 km/h (1 Bft)
30.07.2013 02:48 16,2 C 15,7 C 88 % 1017,3 hPa 0,0 l/m 0 min 0 min 0,0 UV-I 0 W/m 0,0 km/h (0 Bft)
30.07.2013 02:50 16,2 C 15,7 C 88 % 1017,3 hPa 0,0 l/m 0 min 0 min 0,0 UV-I 0 W/m 0,0 km/h (0 Bft)
30.07.2013 02:52 16,2 C 15,7 C 88 % 1017,3 hPa 0,0 l/m 0 min 0 min 0,0 UV-I 0 W/m 0,0 km/h (0 Bft)
30.07.2013 02:54 16,2 C 15,7 C 88 % 1017,3 hPa 0,0 l/m 0 min 0 min 0,0 UV-I 0 W/m 2,6 km/h (1 Bft)
30.07.2013 02:55 16,2 C 15,7 C 88 % 1017,3 hPa 0,0 l/m 0 min 0 min 0,0 UV-I 0 W/m 0,0 km/h (0 Bft)
30.07.2013 02:56 16,2 C 15,1 C 88 % 1017,3 hPa 0,0 l/m 0 min 0 min 0,0 UV-I 0 W/m 2,6 km/h (1 Bft)
30.07.2013 02:57 16,2 C 15,1 C 88 % 1017,3 hPa 0,0 l/m 0 min 0 min 0,0 UV-I 0 W/m 7,7 km/h (2 Bft)
30.07.2013 02:58 16,2 C 15,1 C 88 % 1017,3 hPa 0,0 l/m 0 min 0 min 0,0 UV-I 0 W/m 0,0 km/h (0 Bft)
30.07.2013 02:59 16,1 C 15,1 C 88 % 1017,2 hPa 0,0 l/m 0 min 0 min 0,0 UV-I 0 W/m 0,0 km/h (0 Bft)
30.07.2013 03:00 16,1 C 15,1 C 88 % 1017,2 hPa 0,0 l/m 0 min 0 min 0,0 UV-I 0 W/m 0,0 km/h (0 Bft)
30.07.2013 03:01 16,1 C 15,1 C 88 % 1017,1 hPa 0,0 l/m 0 min 0 min 0,0 UV-I 0 W/m 5,1 km/h (1 Bft)
30.07.2013 03:02 16,1 C 15,1 C 88 % 1017,1 hPa 0,0 l/m 0 min 0 min 0,0 UV-I 0 W/m 5,1 km/h (1 Bft)
30.07.2013 03:03 16,1 C 15,1 C 88 % 1017,2 hPa 0,0 l/m 0 min 0 min 0,0 UV-I 0 W/m 0,0 km/h (0 Bft)
30.07.2013 03:04 16,1 C 15,1 C 88 % 1017,2 hPa 0,0 l/m 0 min 0 min 0,0 UV-I 0 W/m 0,0 km/h (0 Bft)
30.07.2013 03:05 16,1 C 15,1 C 88 % 1017,2 hPa 0,0 l/m 0 min 0 min 0,0 UV-I 0 W/m 0,0 km/h (0 Bft)
30.07.2013 03:06 16,1 C 15,1 C 88 % 1017,2 hPa 0,0 l/m 0 min 0 min 0,0 UV-I 0 W/m 0,0 km/h (0 Bft)
30.07.2013 03:14 16,1 C 15,1 C 88 % 1017,1 hPa 0,0 l/m 0 min 0 min 0,0 UV-I 0 W/m 0,0 km/h (0 Bft)
30.07.2013 03:16 16,1 C 15,1 C 88 % 1017,2 hPa 0,0 l/m 0 min 0 min 0,0 UV-I 0 W/m 0,0 km/h (0 Bft)
30.07.2013 03:18 16,1 C 15,1 C 88 % 1017,2 hPa 0,0 l/m 0 min 0 min 0,0 UV-I 0 W/m 0,0 km/h (0 Bft)
30.07.2013 03:20 16,0 C 15,1 C 89 % 1017,2 hPa 0,0 l/m 0 min 0 min 0,0 UV-I 0 W/m 0,0 km/h (0 Bft)
30.07.2013 03:22 16,1 C 15,1 C 89 % 1017,2 hPa 0,0 l/m 0 min 0 min 0,0 UV-I 0 W/m 0,0 km/h (0 Bft)
30.07.2013 03:24 16,1 C 15,1 C 89 % 1017,3 hPa 0,0 l/m 0 min 0 min 0,0 UV-I 0 W/m 0,0 km/h (0 Bft)
30.07.2013 03:26 16,0 C 15,1 C 89 % 1017,3 hPa 0,0 l/m 0 min 0 min 0,0 UV-I 0 W/m 5,1 km/h (1 Bft)
30.07.2013 03:28 16,0 C 15,1 C 89 % 1017,3 hPa 0,0 l/m 0 min 0 min 0,0 UV-I 0 W/m 0,0 km/h (0 Bft)
30.07.2013 03:30 16,0 C 15,1 C 89 % 1017,3 hPa 0,0 l/m 0 min 0 min 0,0 UV-I 0 W/m 0,0 km/h (0 Bft)
30.07.2013 03:32 16,0 C 15,1 C 89 % 1017,3 hPa 0,0 l/m 0 min 0 min 0,0 UV-I 0 W/m 0,0 km/h (0 Bft)
30.07.2013 03:34 16,0 C 15,1 C 89 % 1017,3 hPa 0,0 l/m 0 min 0 min 0,0 UV-I 0 W/m 0,0 km/h (0 Bft)
30.07.2013 03:36 16,0 C 15,1 C 89 % 1017,3 hPa 0,0 l/m 0 min 0 min 0,0 UV-I 0 W/m 0,0 km/h (0 Bft)
30.07.2013 03:38 16,0 C 15,1 C 89 % 1017,3 hPa 0,0 l/m 0 min 0 min 0,0 UV-I 0 W/m 0,0 km/h (0 Bft)
30.07.2013 03:40 16,0 C 15,1 C 89 % 1017,4 hPa 0,0 l/m 0 min 0 min 0,0 UV-I 0 W/m 0,0 km/h (0 Bft)
30.07.2013 03:42 16,0 C 15,1 C 89 % 1017,5 hPa 0,0 l/m 0 min 0 min 0,0 UV-I 0 W/m 0,0 km/h (0 Bft)
30.07.2013 03:44 16,0 C 15,1 C 89 % 1017,5 hPa 0,0 l/m 0 min 0 min 0,0 UV-I 0 W/m 0,0 km/h (0 Bft)
30.07.2013 03:46 16,0 C 15,1 C 89 % 1017,4 hPa 0,0 l/m 0 min 0 min 0,0 UV-I 0 W/m 0,0 km/h (0 Bft)
30.07.2013 03:48 16,0 C 15,1 C 89 % 1017,4 hPa 0,0 l/m 0 min 0 min 0,0 UV-I 0 W/m 0,0 km/h (0 Bft)
30.07.2013 03:50 16,0 C 15,1 C 89 % 1017,4 hPa 0,0 l/m 0 min 0 min 0,0 UV-I 0 W/m 0,0 km/h (0 Bft)
30.07.2013 03:53 16,0 C 15,1 C 89 % 1017,4 hPa 0,0 l/m 0 min 0 min 0,0 UV-I 0 W/m 0,0 km/h (0 Bft)
30.07.2013 03:54 16,0 C 15,1 C 89 % 1017,4 hPa 0,0 l/m 0 min 0 min 0,0 UV-I 0 W/m 0,0 km/h (0 Bft)
30.07.2013 03:56 16,0 C 15,1 C 89 % 1017,3 hPa 0,0 l/m 0 min 0 min 0,0 UV-I 0 W/m 0,0 km/h (0 Bft)
30.07.2013 03:58 16,0 C 15,1 C 89 % 1017,4 hPa 0,0 l/m 0 min 0 min 0,0 UV-I 0 W/m 0,0 km/h (0 Bft)
30.07.2013 04:00 16,0 C 15,1 C 89 % 1017,4 hPa 0,0 l/m 0 min 0 min 0,0 UV-I 0 W/m 0,0 km/h (0 Bft)
30.07.2013 04:02 16,0 C 15,1 C 89 % 1017,4 hPa 0,0 l/m 0 min 0 min 0,0 UV-I 0 W/m 0,0 km/h (0 Bft)
30.07.2013 04:04 16,0 C 15,1 C 89 % 1017,3 hPa 0,0 l/m 0 min 0 min 0,0 UV-I 0 W/m 10,3 km/h (2 Bft)
30.07.2013 04:06 16,0 C 15,1 C 89 % 1017,4 hPa 0,0 l/m 0 min 0 min 0,0 UV-I 0 W/m 10,3 km/h (2 Bft)
30.07.2013 04:08 16,1 C 15,7 C 89 % 1017,3 hPa 0,0 l/m 0 min 0 min 0,0 UV-I 0 W/m 2,6 km/h (1 Bft)
30.07.2013 04:10 16,1 C 15,7 C 89 % 1017,3 hPa 0,0 l/m 0 min 0 min 0,0 UV-I 0 W/m 0,0 km/h (0 Bft)
30.07.2013 04:12 16,1 C 15,7 C 88 % 1017,3 hPa 0,0 l/m 0 min 0 min 0,0 UV-I 0 W/m 18,0 km/h (3 Bft)
30.07.2013 04:14 16,2 C 15,7 C 88 % 1017,3 hPa 0,0 l/m 0 min 0 min 0,0 UV-I 0 W/m 7,7 km/h (2 Bft)
30.07.2013 04:16 16,2 C 15,7 C 88 % 1017,4 hPa 0,0 l/m 0 min 0 min 0,0 UV-I 0 W/m 5,1 km/h (1 Bft)
30.07.2013 04:18 16,2 C 15,7 C 88 % 1017,3 hPa 0,0 l/m 0 min 0 min 0,0 UV-I 0 W/m 12,9 km/h (3 Bft)
30.07.2013 04:20 16,3 C 15,7 C 88 % 1017,2 hPa 0,0 l/m 0 min 0 min 0,0 UV-I 0 W/m 10,3 km/h (2 Bft)
30.07.2013 04:22 16,3 C 15,7 C 88 % 1017,2 hPa 0,0 l/m 0 min 0 min 0,0 UV-I 0 W/m 5,1 km/h (1 Bft)
30.07.2013 04:24 16,3 C 15,7 C 87 % 1017,2 hPa 0,0 l/m 0 min 0 min 0,0 UV-I 0 W/m 10,3 km/h (2 Bft)
30.07.2013 04:26 16,3 C 15,7 C 87 % 1017,2 hPa 0,0 l/m 0 min 0 min 0,0 UV-I 0 W/m 7,7 km/h (2 Bft)
30.07.2013 04:28 16,3 C 15,7 C 87 % 1017,2 hPa 0,0 l/m 0 min 0 min 0,0 UV-I 0 W/m 10,3 km/h (2 Bft)
30.07.2013 04:30 16,4 C 15,7 C 87 % 1017,2 hPa 0,0 l/m 0 min 0 min 0,0 UV-I 0 W/m 15,4 km/h (3 Bft)
30.07.2013 04:32 16,4 C 15,7 C 87 % 1017,2 hPa 0,0 l/m 0 min 0 min 0,0 UV-I 0 W/m 20,6 km/h (4 Bft)
30.07.2013 04:34 16,3 C 15,7 C 87 % 1017,2 hPa 0,0 l/m 0 min 0 min 0,0 UV-I 0 W/m 5,1 km/h (1 Bft)
30.07.2013 04:36 16,3 C 15,7 C 87 % 1017,2 hPa 0,0 l/m 0 min 0 min 0,0 UV-I 0 W/m 2,6 km/h (1 Bft)
30.07.2013 04:38 16,3 C 15,7 C 88 % 1017,2 hPa 0,0 l/m 0 min 0 min 0,0 UV-I 0 W/m 2,6 km/h (1 Bft)
30.07.2013 04:40 16,3 C 15,7 C 88 % 1017,2 hPa 0,0 l/m 0 min 0 min 0,0 UV-I 0 W/m 10,3 km/h (2 Bft)
30.07.2013 04:42 16,3 C 15,7 C 88 % 1017,2 hPa 0,0 l/m 0 min 0 min 0,0 UV-I 0 W/m 12,9 km/h (3 Bft)
30.07.2013 04:44 16,3 C 15,1 C 88 % 1017,2 hPa 0,0 l/m 0 min 0 min 0,0 UV-I 0 W/m 2,6 km/h (1 Bft)
30.07.2013 04:46 16,2 C 15,1 C 88 % 1017,2 hPa 0,0 l/m 0 min 0 min 0,0 UV-I 0 W/m 12,9 km/h (3 Bft)
30.07.2013 04:48 16,2 C 15,1 C 88 % 1017,2 hPa 0,0 l/m 0 min 0 min 0,0 UV-I 0 W/m 2,6 km/h (1 Bft)
30.07.2013 04:50 16,2 C 15,1 C 88 % 1017,2 hPa 0,0 l/m 0 min 0 min 0,0 UV-I 0 W/m 0,0 km/h (0 Bft)
30.07.2013 04:52 16,2 C 15,1 C 89 % 1017,2 hPa 0,0 l/m 0 min 0 min 0,0 UV-I 0 W/m 15,4 km/h (3 Bft)
30.07.2013 04:54 16,2 C 15,1 C 89 % 1017,1 hPa 0,0 l/m 0 min 0 min 0,0 UV-I 0 W/m 20,6 km/h (4 Bft)
30.07.2013 04:56 16,2 C 15,1 C 89 % 1017,1 hPa 0,0 l/m 0 min 0 min 0,0 UV-I 0 W/m 10,3 km/h (2 Bft)
30.07.2013 04:58 16,2 C 15,1 C 89 % 1017,1 hPa 0,0 l/m 0 min 0 min 0,0 UV-I 0 W/m 12,9 km/h (3 Bft)
30.07.2013 05:00 16,1 C 15,1 C 89 % 1017,1 hPa 0,0 l/m 0 min 0 min 0,0 UV-I 0 W/m 10,3 km/h (2 Bft)
30.07.2013 05:02 16,1 C 15,1 C 89 % 1017,2 hPa 0,0 l/m 0 min 0 min 0,0 UV-I 0 W/m 15,4 km/h (3 Bft)
30.07.2013 05:06 16,1 C 15,1 C 89 % 1017,1 hPa 0,0 l/m 0 min 0 min 0,0 UV-I 0 W/m 15,4 km/h (3 Bft)
30.07.2013 05:08 16,0 C 15,1 C 90 % 1017,2 hPa 0,0 l/m 0 min 0 min 0,0 UV-I 0 W/m 7,7 km/h (2 Bft)
30.07.2013 05:10 16,0 C 15,1 C 90 % 1017,2 hPa 0,0 l/m 0 min 0 min 0,0 UV-I 0 W/m 0,0 km/h (0 Bft)
30.07.2013 05:12 15,9 C 15,1 C 90 % 1017,2 hPa 0,0 l/m 0 min 0 min 0,0 UV-I 0 W/m 2,6 km/h (1 Bft)
30.07.2013 05:14 15,9 C 15,1 C 90 % 1017,2 hPa 0,0 l/m 0 min 0 min 0,0 UV-I 0 W/m 7,7 km/h (2 Bft)
30.07.2013 05:16 15,9 C 15,1 C 90 % 1017,3 hPa 0,0 l/m 0 min 0 min 0,0 UV-I 0 W/m 12,9 km/h (3 Bft)
30.07.2013 05:18 15,8 C 15,1 C 90 % 1017,3 hPa 0,0 l/m 0 min 0 min 0,0 UV-I 0 W/m 12,9 km/h (3 Bft)
30.07.2013 05:20 15,8 C 14,6 C 90 % 1017,3 hPa 0,0 l/m 0 min 0 min 0,0 UV-I 0 W/m 5,1 km/h (1 Bft)
30.07.2013 05:22 15,8 C 14,6 C 91 % 1017,4 hPa 0,0 l/m 0 min 0 min 0,0 UV-I 0 W/m 5,1 km/h (1 Bft)
30.07.2013 05:24 15,8 C 14,6 C 91 % 1017,5 hPa 0,0 l/m 0 min 0 min 0,0 UV-I 0 W/m 12,9 km/h (3 Bft)
30.07.2013 05:26 15,8 C 14,6 C 91 % 1017,4 hPa 0,0 l/m 0 min 0 min 0,0 UV-I 0 W/m 7,7 km/h (2 Bft)
30.07.2013 05:28 15,7 C 14,6 C 91 % 1017,4 hPa 0,0 l/m 0 min 0 min 0,0 UV-I 0 W/m 7,7 km/h (2 Bft)
30.07.2013 05:30 15,7 C 14,6 C 91 % 1017,4 hPa 0,0 l/m 0 min 0 min 0,0 UV-I 0 W/m 12,9 km/h (3 Bft)
30.07.2013 05:32 15,7 C 14,6 C 91 % 1017,3 hPa 0,0 l/m 0 min 0 min 0,0 UV-I 0 W/m 0,0 km/h (0 Bft)
30.07.2013 05:34 15,7 C 14,6 C 91 % 1017,4 hPa 0,0 l/m 0 min 0 min 0,0 UV-I 0 W/m 10,3 km/h (2 Bft)
30.07.2013 05:36 15,7 C 14,6 C 92 % 1017,4 hPa 0,0 l/m 0 min 0 min 0,0 UV-I 0 W/m 2,6 km/h (1 Bft)
30.07.2013 05:38 15,7 C 14,6 C 92 % 1017,4 hPa 0,0 l/m 0 min 0 min 0,0 UV-I 0 W/m 10,3 km/h (2 Bft)
30.07.2013 05:40 15,6 C 14,6 C 92 % 1017,4 hPa 0,0 l/m 0 min 0 min 0,0 UV-I 0 W/m 0,0 km/h (0 Bft)
30.07.2013 05:42 15,6 C 14,6 C 92 % 1017,4 hPa 0,0 l/m 0 min 0 min 0,0 UV-I 0 W/m 0,0 km/h (0 Bft)
30.07.2013 05:44 15,6 C 14,6 C 92 % 1017,5 hPa 0,0 l/m 0 min 0 min 0,0 UV-I 0 W/m 7,7 km/h (2 Bft)
30.07.2013 05:46 15,6 C 14,6 C 92 % 1017,4 hPa 0,0 l/m 0 min 0 min 0,0 UV-I 0 W/m 7,7 km/h (2 Bft)
30.07.2013 05:48 15,5 C 14,6 C 92 % 1017,4 hPa 0,0 l/m 0 min 0 min 0,0 UV-I 0 W/m 7,7 km/h (2 Bft)
30.07.2013 05:50 15,5 C 14,6 C 92 % 1017,4 hPa 0,0 l/m 0 min 0 min 0,0 UV-I 0 W/m 0,0 km/h (0 Bft)
30.07.2013 05:52 15,4 C 14,6 C 93 % 1017,3 hPa 0,0 l/m 0 min 0 min 0,0 UV-I 0 W/m 5,1 km/h (1 Bft)
30.07.2013 05:54 15,4 C 14,6 C 93 % 1017,4 hPa 0,0 l/m 0 min 0 min 0,0 UV-I 0 W/m 10,3 km/h (2 Bft)
30.07.2013 05:56 15,4 C 14,6 C 93 % 1017,4 hPa 0,0 l/m 0 min 0 min 0,0 UV-I 0 W/m 7,7 km/h (2 Bft)
30.07.2013 05:58 15,3 C 14,6 C 93 % 1017,4 hPa 0,0 l/m 0 min 0 min 0,0 UV-I 5 W/m 10,3 km/h (2 Bft)
30.07.2013 06:00 15,3 C 14,6 C 93 % 1017,5 hPa 0,0 l/m 0 min 0 min 0,0 UV-I 5 W/m 7,7 km/h (2 Bft)
30.07.2013 06:02 15,3 C 14,6 C 93 % 1017,5 hPa 0,0 l/m 0 min 0 min 0,0 UV-I 5 W/m 5,1 km/h (1 Bft)
30.07.2013 06:06 15,3 C 14,6 C 93 % 1017,6 hPa 0,0 l/m 0 min 0 min 0,0 UV-I 7 W/m 0,0 km/h (0 Bft)
30.07.2013 06:08 15,3 C 14,6 C 93 % 1017,6 hPa 0,0 l/m 0 min 0 min 0,0 UV-I 7 W/m 7,7 km/h (2 Bft)
30.07.2013 06:10 15,3 C 14,6 C 93 % 1017,7 hPa 0,0 l/m 0 min 0 min 0,0 UV-I 7 W/m 5,1 km/h (1 Bft)
30.07.2013 06:12 15,2 C 14,6 C 94 % 1017,6 hPa 0,0 l/m 0 min 0 min 0,0 UV-I 9 W/m 5,1 km/h (1 Bft)
30.07.2013 06:14 15,2 C 14,6 C 94 % 1017,6 hPa 0,0 l/m 0 min 0 min 0,0 UV-I 11 W/m 2,6 km/h (1 Bft)
30.07.2013 06:16 15,2 C 14,6 C 94 % 1017,6 hPa 0,0 l/m 0 min 0 min 0,0 UV-I 11 W/m 2,6 km/h (1 Bft)
30.07.2013 06:18 15,2 C 14,6 C 94 % 1017,6 hPa 0,0 l/m 0 min 0 min 0,0 UV-I 12 W/m 0,0 km/h (0 Bft)
30.07.2013 06:20 15,2 C 14,6 C 94 % 1017,6 hPa 0,0 l/m 0 min 0 min 0,0 UV-I 12 W/m 0,0 km/h (0 Bft)
30.07.2013 06:22 15,2 C 14,6 C 94 % 1017,6 hPa 0,0 l/m 0 min 0 min 0,0 UV-I 14 W/m 5,1 km/h (1 Bft)
30.07.2013 06:24 15,2 C 14,6 C 94 % 1017,6 hPa 0,0 l/m 0 min 0 min 0,0 UV-I 16 W/m 2,6 km/h (1 Bft)
30.07.2013 06:26 15,2 C 14,6 C 94 % 1017,6 hPa 0,0 l/m 0 min 0 min 0,0 UV-I 16 W/m 7,7 km/h (2 Bft)
30.07.2013 06:28 15,2 C 14,6 C 94 % 1017,7 hPa 0,0 l/m 0 min 0 min 0,0 UV-I 19 W/m 12,9 km/h (3 Bft)
30.07.2013 06:30 15,2 C 14,6 C 94 % 1017,6 hPa 0,0 l/m 0 min 0 min 0,0 UV-I 23 W/m 0,0 km/h (0 Bft)
30.07.2013 06:32 15,2 C 14,6 C 94 % 1017,7 hPa 0,0 l/m 0 min 0 min 0,0 UV-I 25 W/m 12,9 km/h (3 Bft)
30.07.2013 06:34 15,2 C 14,6 C 94 % 1017,8 hPa 0,0 l/m 0 min 0 min 0,0 UV-I 26 W/m 12,9 km/h (3 Bft)
30.07.2013 06:36 15,2 C 14,6 C 94 % 1017,8 hPa 0,0 l/m 0 min 0 min 0,0 UV-I 30 W/m 0,0 km/h (0 Bft)
30.07.2013 06:38 15,2 C 14,6 C 94 % 1017,9 hPa 0,0 l/m 0 min 0 min 0,0 UV-I 32 W/m 7,7 km/h (2 Bft)
30.07.2013 06:40 15,3 C 14,6 C 94 % 1017,9 hPa 0,0 l/m 0 min 0 min 0,0 UV-I 32 W/m 5,1 km/h (1 Bft)
30.07.2013 06:42 15,3 C 14,6 C 94 % 1017,8 hPa 0,0 l/m 0 min 0 min 0,0 UV-I 33 W/m 2,6 km/h (1 Bft)
30.07.2013 06:44 15,3 C 14,6 C 94 % 1017,8 hPa 0,0 l/m 0 min 0 min 0,0 UV-I 33 W/m 7,7 km/h (2 Bft)
30.07.2013 06:46 15,3 C 14,6 C 94 % 1017,8 hPa 0,0 l/m 0 min 0 min 0,0 UV-I 35 W/m 7,7 km/h (2 Bft)
30.07.2013 06:48 15,3 C 14,6 C 94 % 1017,8 hPa 0,0 l/m 0 min 0 min 0,0 UV-I 35 W/m 12,9 km/h (3 Bft)
30.07.2013 06:50 15,3 C 14,6 C 94 % 1017,8 hPa 0,0 l/m 0 min 0 min 0,0 UV-I 39 W/m 2,6 km/h (1 Bft)
30.07.2013 06:52 15,4 C 14,6 C 94 % 1017,8 hPa 0,0 l/m 0 min 0 min 0,0 UV-I 42 W/m 10,3 km/h (2 Bft)
30.07.2013 06:54 15,4 C 14,6 C 94 % 1017,9 hPa 0,0 l/m 0 min 0 min 0,0 UV-I 42 W/m 7,7 km/h (2 Bft)
30.07.2013 06:56 15,5 C 14,6 C 94 % 1017,8 hPa 0,0 l/m 0 min 0 min 0,0 UV-I 42 W/m 12,9 km/h (3 Bft)
30.07.2013 06:58 15,5 C 14,6 C 94 % 1017,8 hPa 0,0 l/m 0 min 0 min 0,0 UV-I 42 W/m 12,9 km/h (3 Bft)
30.07.2013 07:00 15,6 C 15,1 C 94 % 1017,9 hPa 0,0 l/m 0 min 0 min 0,0 UV-I 42 W/m 0,0 km/h (0 Bft)
30.07.2013 07:02 15,6 C 15,1 C 93 % 1017,8 hPa 0,0 l/m 0 min 0 min 0,0 UV-I 40 W/m 0,0 km/h (0 Bft)
30.07.2013 07:06 15,7 C 15,1 C 93 % 1017,8 hPa 0,0 l/m 0 min 0 min 0,0 UV-I 44 W/m 2,6 km/h (1 Bft)
30.07.2013 07:08 15,7 C 15,1 C 93 % 1017,9 hPa 0,0 l/m 0 min 0 min 0,0 UV-I 44 W/m 7,7 km/h (2 Bft)
30.07.2013 07:10 15,7 C 15,1 C 93 % 1017,8 hPa 0,0 l/m 0 min 0 min 0,0 UV-I 44 W/m 10,3 km/h (2 Bft)
30.07.2013 07:12 15,7 C 15,1 C 92 % 1017,8 hPa 0,0 l/m 0 min 0 min 0,0 UV-I 44 W/m 15,4 km/h (3 Bft)
30.07.2013 07:14 15,8 C 15,1 C 92 % 1017,8 hPa 0,0 l/m 0 min 0 min 0,0 UV-I 46 W/m 7,7 km/h (2 Bft)
30.07.2013 07:16 15,8 C 15,1 C 92 % 1017,8 hPa 0,0 l/m 0 min 0 min 0,0 UV-I 49 W/m 12,9 km/h (3 Bft)
30.07.2013 07:18 15,8 C 15,1 C 92 % 1017,8 hPa 0,0 l/m 0 min 0 min 0,0 UV-I 49 W/m 12,9 km/h (3 Bft)
30.07.2013 07:20 15,9 C 15,1 C 91 % 1017,9 hPa 0,0 l/m 0 min 0 min 0,0 UV-I 49 W/m 12,9 km/h (3 Bft)
30.07.2013 07:22 15,9 C 15,1 C 91 % 1017,8 hPa 0,0 l/m 0 min 0 min 0,0 UV-I 51 W/m 10,3 km/h (2 Bft)
30.07.2013 07:24 15,9 C 15,1 C 91 % 1017,8 hPa 0,0 l/m 0 min 0 min 0,0 UV-I 49 W/m 7,7 km/h (2 Bft)
30.07.2013 07:26 16,0 C 15,1 C 91 % 1017,7 hPa 0,0 l/m 0 min 0 min 0,0 UV-I 46 W/m 15,4 km/h (3 Bft)
30.07.2013 07:28 16,1 C 15,1 C 91 % 1017,8 hPa 0,0 l/m 0 min 0 min 0,0 UV-I 37 W/m 7,7 km/h (2 Bft)
30.07.2013 07:30 16,1 C 15,1 C 90 % 1017,8 hPa 0,0 l/m 0 min 0 min 0,0 UV-I 33 W/m 12,9 km/h (3 Bft)
30.07.2013 07:32 16,1 C 15,1 C 90 % 1017,8 hPa 0,0 l/m 0 min 0 min 0,0 UV-I 30 W/m 7,7 km/h (2 Bft)
30.07.2013 07:34 16,1 C 15,1 C 90 % 1017,8 hPa 0,0 l/m 0 min 0 min 0,0 UV-I 28 W/m 0,0 km/h (0 Bft)
30.07.2013 07:36 16,1 C 15,1 C 90 % 1017,9 hPa 0,0 l/m 0 min 0 min 0,0 UV-I 33 W/m 18,0 km/h (3 Bft)
30.07.2013 07:38 16,1 C 15,1 C 89 % 1017,8 hPa 0,0 l/m 0 min 0 min 0,0 UV-I 35 W/m 12,9 km/h (3 Bft)
30.07.2013 07:40 16,1 C 15,1 C 89 % 1017,8 hPa 0,0 l/m 0 min 0 min 0,0 UV-I 37 W/m 2,6 km/h (1 Bft)
30.07.2013 07:42 16,1 C 15,1 C 89 % 1017,8 hPa 0,0 l/m 0 min 0 min 0,0 UV-I 37 W/m 12,9 km/h (3 Bft)
30.07.2013 07:44 16,1 C 15,1 C 89 % 1017,8 hPa 0,0 l/m 0 min 0 min 0,0 UV-I 39 W/m 2,6 km/h (1 Bft)
30.07.2013 07:46 16,2 C 15,1 C 89 % 1017,8 hPa 0,0 l/m 0 min 0 min 0,0 UV-I 40 W/m 7,7 km/h (2 Bft)
30.07.2013 07:48 16,2 C 15,1 C 89 % 1017,9 hPa 0,0 l/m 0 min 0 min 0,0 UV-I 42 W/m 2,6 km/h (1 Bft)
30.07.2013 07:50 16,3 C 15,7 C 88 % 1017,9 hPa 0,0 l/m 0 min 0 min 0,0 UV-I 42 W/m 7,7 km/h (2 Bft)
30.07.2013 07:52 16,3 C 15,7 C 88 % 1017,9 hPa 0,0 l/m 0 min 0 min 0,0 UV-I 40 W/m 0,0 km/h (0 Bft)
30.07.2013 07:54 16,3 C 15,7 C 88 % 1017,9 hPa 0,0 l/m 0 min 0 min 0,0 UV-I 44 W/m 7,7 km/h (2 Bft)
30.07.2013 07:56 16,4 C 15,7 C 88 % 1017,9 hPa 0,0 l/m 0 min 0 min 0,0 UV-I 47 W/m 15,4 km/h (3 Bft)
30.07.2013 07:58 16,4 C 15,7 C 88 % 1017,9 hPa 0,0 l/m 0 min 0 min 0,0 UV-I 49 W/m 10,3 km/h (2 Bft)
30.07.2013 08:00 16,4 C 15,7 C 87 % 1018,0 hPa 0,0 l/m 0 min 0 min 0,0 UV-I 49 W/m 10,3 km/h (2 Bft)
30.07.2013 08:02 16,5 C 15,7 C 87 % 1018,0 hPa 0,0 l/m 0 min 0 min 0,0 UV-I 49 W/m 10,3 km/h (2 Bft)
30.07.2013 08:06 16,6 C 15,7 C 87 % 1018,0 hPa 0,0 l/m 0 min 0 min 0,0 UV-I 47 W/m 12,9 km/h (3 Bft)
30.07.2013 08:08 16,6 C 15,7 C 87 % 1018,0 hPa 0,0 l/m 0 min 0 min 0,0 UV-I 46 W/m 18,0 km/h (3 Bft)
30.07.2013 08:10 16,7 C 15,7 C 86 % 1017,9 hPa 0,0 l/m 0 min 0 min 0,0 UV-I 46 W/m 12,9 km/h (3 Bft)
30.07.2013 08:12 16,7 C 15,7 C 86 % 1017,9 hPa 0,0 l/m 0 min 0 min 0,0 UV-I 105 W/m 5,1 km/h (1 Bft)
30.07.2013 08:14 16,7 C 15,7 C 86 % 1017,9 hPa 0,0 l/m 0 min 0 min 0,0 UV-I 128 W/m 10,3 km/h (2 Bft)
30.07.2013 08:16 16,8 C 15,7 C 86 % 1017,9 hPa 0,0 l/m 2 min 0 min 0,0 UV-I 199 W/m 12,9 km/h (3 Bft)
30.07.2013 08:18 16,8 C 15,7 C 85 % 1017,9 hPa 0,0 l/m 2 min 0 min 0,0 UV-I 248 W/m 7,7 km/h (2 Bft)
30.07.2013 08:20 16,8 C 15,7 C 85 % 1018,0 hPa 0,0 l/m 2 min 0 min 0,0 UV-I 274 W/m 7,7 km/h (2 Bft)
30.07.2013 08:22 16,9 C 15,7 C 85 % 1018,0 hPa 0,0 l/m 2 min 0 min 0,0 UV-I 281 W/m 7,7 km/h (2 Bft)
30.07.2013 08:24 16,9 C 15,7 C 85 % 1018,0 hPa 0,0 l/m 2 min 0 min 0,0 UV-I 288 W/m 15,4 km/h (3 Bft)
30.07.2013 08:26 17,0 C 16,2 C 85 % 1018,0 hPa 0,0 l/m 2 min 0 min 0,0 UV-I 283 W/m 0,0 km/h (0 Bft)
30.07.2013 08:28 17,0 C 16,2 C 84 % 1018,0 hPa 0,0 l/m 2 min 0 min 0,0 UV-I 301 W/m 2,6 km/h (1 Bft)
30.07.2013 08:30 17,1 C 16,2 C 84 % 1017,9 hPa 0,0 l/m 2 min 0 min 0,0 UV-I 306 W/m 12,9 km/h (3 Bft)
30.07.2013 08:32 17,1 C 16,2 C 84 % 1018,0 hPa 0,0 l/m 2 min 0 min 0,0 UV-I 308 W/m 7,7 km/h (2 Bft)
30.07.2013 08:34 17,2 C 16,2 C 84 % 1018,0 hPa 0,0 l/m 2 min 0 min 0,0 UV-I 315 W/m 2,6 km/h (1 Bft)
30.07.2013 08:36 17,2 C 16,2 C 84 % 1018,0 hPa 0,0 l/m 2 min 0 min 0,0 UV-I 320 W/m 12,9 km/h (3 Bft)
30.07.2013 08:38 17,3 C 16,2 C 84 % 1018,0 hPa 0,0 l/m 2 min 0 min 0,0 UV-I 294 W/m 10,3 km/h (2 Bft)
30.07.2013 08:40 17,3 C 16,2 C 83 % 1018,0 hPa 0,0 l/m 2 min 0 min 0,0 UV-I 336 W/m 18,0 km/h (3 Bft)
30.07.2013 08:42 17,4 C 16,2 C 82 % 1018,1 hPa 0,0 l/m 2 min 0 min 0,0 UV-I 336 W/m 7,7 km/h (2 Bft)
30.07.2013 08:44 17,4 C 16,2 C 83 % 1018,1 hPa 0,0 l/m 2 min 0 min 0,0 UV-I 341 W/m 2,6 km/h (1 Bft)
30.07.2013 08:46 17,6 C 16,2 C 83 % 1018,1 hPa 0,0 l/m 2 min 0 min 0,0 UV-I 343 W/m 5,1 km/h (1 Bft)
30.07.2013 08:48 17,6 C 16,2 C 82 % 1018,2 hPa 0,0 l/m 2 min 0 min 0,5 UV-I 348 W/m 7,7 km/h (2 Bft)
30.07.2013 08:50 17,7 C 16,8 C 82 % 1018,1 hPa 0,0 l/m 2 min 0 min 0,5 UV-I 355 W/m 5,1 km/h (1 Bft)
30.07.2013 08:52 17,8 C 16,8 C 82 % 1018,1 hPa 0,0 l/m 2 min 0 min 0,5 UV-I 330 W/m 7,7 km/h (2 Bft)
30.07.2013 08:54 17,9 C 16,8 C 81 % 1018,1 hPa 0,0 l/m 2 min 0 min 0,6 UV-I 366 W/m 7,7 km/h (2 Bft)
30.07.2013 08:56 17,9 C 16,8 C 81 % 1018,1 hPa 0,0 l/m 2 min 0 min 0,6 UV-I 367 W/m 5,1 km/h (1 Bft)
30.07.2013 08:58 18,0 C 16,8 C 80 % 1018,1 hPa 0,0 l/m 2 min 0 min 0,6 UV-I 371 W/m 10,3 km/h (2 Bft)
30.07.2013 09:00 18,1 C 16,8 C 80 % 1018,0 hPa 0,0 l/m 2 min 0 min 0,7 UV-I 378 W/m 18,0 km/h (3 Bft)
30.07.2013 09:02 18,2 C 16,8 C 80 % 1018,1 hPa 0,0 l/m 2 min 0 min 0,7 UV-I 385 W/m 15,4 km/h (3 Bft)
30.07.2013 09:06 18,3 C 16,8 C 79 % 1018,2 hPa 0,0 l/m 2 min 0 min 0,7 UV-I 403 W/m 15,4 km/h (3 Bft)
30.07.2013 09:08 18,4 C 17,3 C 79 % 1018,0 hPa 0,0 l/m 2 min 0 min 0,7 UV-I 383 W/m 7,7 km/h (2 Bft)
30.07.2013 09:10 18,4 C 17,3 C 78 % 1018,0 hPa 0,0 l/m 2 min 0 min 0,6 UV-I 367 W/m 12,9 km/h (3 Bft)
30.07.2013 09:12 18,6 C 17,3 C 78 % 1018,1 hPa 0,0 l/m 2 min 0 min 0,9 UV-I 413 W/m 23,2 km/h (4 Bft)
30.07.2013 09:14 18,6 C 17,3 C 78 % 1018,1 hPa 0,0 l/m 2 min 0 min 0,7 UV-I 410 W/m 10,3 km/h (2 Bft)
30.07.2013 09:16 18,7 C 17,3 C 77 % 1018,0 hPa 0,0 l/m 2 min 0 min 0,9 UV-I 411 W/m 20,6 km/h (4 Bft)
30.07.2013 09:18 18,8 C 17,3 C 77 % 1018,1 hPa 0,0 l/m 2 min 0 min 0,8 UV-I 475 W/m 12,9 km/h (3 Bft)
30.07.2013 09:20 18,8 C 17,3 C 77 % 1018,1 hPa 0,0 l/m 0 min 0 min 1,0 UV-I 95 W/m 2,6 km/h (1 Bft)
30.07.2013 09:22 18,8 C 17,3 C 77 % 1018,1 hPa 0,0 l/m 2 min 0 min 1,0 UV-I 461 W/m 12,9 km/h (3 Bft)
30.07.2013 09:24 18,8 C 17,3 C 78 % 1018,1 hPa 0,0 l/m 2 min 0 min 1,0 UV-I 482 W/m 5,1 km/h (1 Bft)
30.07.2013 09:26 18,9 C 17,9 C 77 % 1018,0 hPa 0,0 l/m 2 min 0 min 0,8 UV-I 415 W/m 15,4 km/h (3 Bft)
30.07.2013 09:28 19,1 C 17,9 C 76 % 1018,1 hPa 0,0 l/m 2 min 0 min 1,1 UV-I 415 W/m 10,3 km/h (2 Bft)
30.07.2013 09:30 19,0 C 17,9 C 75 % 1018,0 hPa 0,0 l/m 2 min 0 min 1,2 UV-I 466 W/m 20,6 km/h (4 Bft)
30.07.2013 09:32 18,9 C 17,9 C 76 % 1018,0 hPa 0,0 l/m 2 min 0 min 1,3 UV-I 482 W/m 12,9 km/h (3 Bft)
30.07.2013 09:34 19,0 C 17,9 C 76 % 1017,9 hPa 0,0 l/m 2 min 0 min 1,2 UV-I 464 W/m 23,2 km/h (4 Bft)
30.07.2013 09:36 19,1 C 17,9 C 76 % 1018,0 hPa 0,0 l/m 2 min 0 min 1,3 UV-I 471 W/m 15,4 km/h (3 Bft)
30.07.2013 09:38 19,2 C 17,9 C 76 % 1017,9 hPa 0,0 l/m 2 min 0 min 1,3 UV-I 457 W/m 23,2 km/h (4 Bft)
30.07.2013 09:40 19,3 C 18,4 C 75 % 1018,0 hPa 0,0 l/m 2 min 0 min 1,3 UV-I 454 W/m 23,2 km/h (4 Bft)
30.07.2013 09:42 19,3 C 18,4 C 75 % 1018,0 hPa 0,0 l/m 2 min 0 min 1,3 UV-I 464 W/m 18,0 km/h (3 Bft)
30.07.2013 09:44 19,4 C 18,4 C 74 % 1018,0 hPa 0,0 l/m 2 min 0 min 1,0 UV-I 383 W/m 12,9 km/h (3 Bft)
30.07.2013 09:46 19,4 C 18,4 C 74 % 1018,0 hPa 0,0 l/m 2 min 0 min 1,5 UV-I 494 W/m 23,2 km/h (4 Bft)
30.07.2013 09:48 19,4 C 18,4 C 73 % 1017,9 hPa 0,0 l/m 2 min 0 min 1,5 UV-I 499 W/m 23,2 km/h (4 Bft)
30.07.2013 09:50 19,5 C 19,0 C 73 % 1017,9 hPa 0,0 l/m 2 min 0 min 1,5 UV-I 510 W/m 18,0 km/h (3 Bft)
30.07.2013 09:52 19,6 C 19,6 C 73 % 1017,8 hPa 0,0 l/m 2 min 0 min 1,6 UV-I 508 W/m 20,6 km/h (4 Bft)
30.07.2013 09:54 19,6 C 20,1 C 73 % 1017,8 hPa 0,0 l/m 2 min 0 min 1,6 UV-I 524 W/m 15,4 km/h (3 Bft)
30.07.2013 09:56 19,7 C 20,7 C 73 % 1017,7 hPa 0,0 l/m 2 min 0 min 1,6 UV-I 501 W/m 10,3 km/h (2 Bft)
30.07.2013 09:58 19,8 C 22,3 C 73 % 1017,8 hPa 0,0 l/m 2 min 0 min 1,7 UV-I 533 W/m 10,3 km/h (2 Bft)
30.07.2013 10:00 19,9 C 23,4 C 73 % 1017,8 hPa 0,0 l/m 2 min 0 min 1,8 UV-I 548 W/m 15,4 km/h (3 Bft)
30.07.2013 10:02 20,1 C 24,6 C 73 % 1017,7 hPa 0,0 l/m 2 min 0 min 1,6 UV-I 564 W/m 18,0 km/h (3 Bft)
30.07.2013 10:06 20,3 C 25,7 C 73 % 1017,8 hPa 0,0 l/m 2 min 0 min 2,0 UV-I 582 W/m 15,4 km/h (3 Bft)
30.07.2013 10:08 20,3 C 25,7 C 72 % 1017,8 hPa 0,0 l/m 2 min 0 min 2,1 UV-I 613 W/m 5,1 km/h (1 Bft)
30.07.2013 10:10 20,5 C 26,2 C 72 % 1017,8 hPa 0,0 l/m 2 min 0 min 2,2 UV-I 649 W/m 15,4 km/h (3 Bft)
30.07.2013 10:12 20,6 C 26,8 C 72 % 1017,8 hPa 0,0 l/m 2 min 0 min 2,4 UV-I 724 W/m 15,4 km/h (3 Bft)
30.07.2013 10:14 20,8 C 27,3 C 72 % 1017,7 hPa 0,0 l/m 2 min 0 min 2,5 UV-I 773 W/m 15,4 km/h (3 Bft)
30.07.2013 10:16 21,1 C 26,2 C 71 % 1017,9 hPa 0,0 l/m 2 min 0 min 2,0 UV-I 439 W/m 18,0 km/h (3 Bft)
30.07.2013 10:18 21,0 C 24,6 C 71 % 1017,8 hPa 0,0 l/m 2 min 0 min 1,7 UV-I 424 W/m 20,6 km/h (4 Bft)
30.07.2013 10:20 20,8 C 23,4 C 71 % 1017,9 hPa 0,0 l/m 2 min 0 min 1,7 UV-I 424 W/m 15,4 km/h (3 Bft)
30.07.2013 10:22 20,7 C 22,9 C 71 % 1017,8 hPa 0,0 l/m 2 min 0 min 1,4 UV-I 464 W/m 15,4 km/h (3 Bft)
30.07.2013 10:24 20,6 C 22,9 C 71 % 1017,9 hPa 0,0 l/m 2 min 0 min 2,7 UV-I 374 W/m 12,9 km/h (3 Bft)
30.07.2013 10:26 20,5 C 22,3 C 70 % 1017,9 hPa 0,0 l/m 2 min 0 min 2,0 UV-I 374 W/m 10,3 km/h (2 Bft)
30.07.2013 10:28 20,4 C 22,9 C 71 % 1018,0 hPa 0,0 l/m 2 min 0 min 2,1 UV-I 374 W/m 12,9 km/h (3 Bft)
30.07.2013 10:30 20,4 C 22,3 C 72 % 1018,0 hPa 0,0 l/m 0 min 0 min 1,5 UV-I 309 W/m 20,6 km/h (4 Bft)
30.07.2013 10:32 20,4 C 22,3 C 71 % 1018,0 hPa 0,0 l/m 0 min 0 min 1,4 UV-I 309 W/m 10,3 km/h (2 Bft)
30.07.2013 10:34 20,3 C 22,3 C 72 % 1017,9 hPa 0,0 l/m 2 min 0 min 2,2 UV-I 575 W/m 7,7 km/h (2 Bft)
30.07.2013 10:36 20,4 C 23,4 C 71 % 1018,1 hPa 0,0 l/m 2 min 0 min 2,2 UV-I 510 W/m 20,6 km/h (4 Bft)
30.07.2013 10:38 20,4 C 23,4 C 71 % 1018,1 hPa 0,0 l/m 2 min 0 min 2,6 UV-I 640 W/m 30,9 km/h (5 Bft)
30.07.2013 10:40 20,6 C 24,0 C 72 % 1018,0 hPa 0,0 l/m 2 min 0 min 2,7 UV-I 652 W/m 7,7 km/h (2 Bft)
30.07.2013 10:42 20,8 C 25,1 C 71 % 1017,8 hPa 0,0 l/m 2 min 0 min 3,0 UV-I 719 W/m 15,4 km/h (3 Bft)
30.07.2013 10:44 20,9 C 26,2 C 70 % 1018,1 hPa 0,0 l/m 2 min 0 min 3,0 UV-I 717 W/m 15,4 km/h (3 Bft)
30.07.2013 10:46 20,9 C 26,2 C 69 % 1017,9 hPa 0,0 l/m 2 min 0 min 2,9 UV-I 710 W/m 15,4 km/h (3 Bft)
30.07.2013 10:48 21,0 C 26,2 C 68 % 1018,1 hPa 0,0 l/m 2 min 0 min 3,1 UV-I 703 W/m 18,0 km/h (3 Bft)
30.07.2013 10:50 21,2 C 26,2 C 70 % 1018,0 hPa 0,0 l/m 2 min 0 min 2,5 UV-I 654 W/m 15,4 km/h (3 Bft)
30.07.2013 10:52 21,2 C 25,1 C 69 % 1018,1 hPa 0,0 l/m 2 min 0 min 2,6 UV-I 619 W/m 15,4 km/h (3 Bft)
30.07.2013 10:54 21,1 C 24,6 C 69 % 1018,0 hPa 0,0 l/m 2 min 0 min 2,5 UV-I 656 W/m 12,9 km/h (3 Bft)
30.07.2013 10:56 21,0 C 24,0 C 69 % 1018,0 hPa 0,0 l/m 2 min 0 min 2,1 UV-I 422 W/m 10,3 km/h (2 Bft)
30.07.2013 10:58 20,8 C 22,9 C 70 % 1017,9 hPa 0,0 l/m 0 min 0 min 1,5 UV-I 272 W/m 5,1 km/h (1 Bft)
30.07.2013 11:00 20,8 C 22,3 C 70 % 1017,9 hPa 0,0 l/m 0 min 0 min 1,1 UV-I 330 W/m 10,3 km/h (2 Bft)
30.07.2013 11:02 20,6 C 21,8 C 71 % 1017,9 hPa 0,0 l/m 0 min 0 min 1,7 UV-I 250 W/m 2,6 km/h (1 Bft)
30.07.2013 11:06 20,8 C 23,4 C 72 % 1017,9 hPa 0,0 l/m 2 min 0 min 1,3 UV-I 666 W/m 7,7 km/h (2 Bft)
30.07.2013 11:08 20,9 C 24,0 C 71 % 1017,9 hPa 0,0 l/m 0 min 0 min 2,6 UV-I 274 W/m 15,4 km/h (3 Bft)
30.07.2013 11:10 21,1 C 24,6 C 71 % 1017,9 hPa 0,0 l/m 2 min 0 min 3,3 UV-I 837 W/m 23,2 km/h (4 Bft)
30.07.2013 11:12 21,3 C 25,7 C 72 % 1017,9 hPa 0,0 l/m 2 min 0 min 3,5 UV-I 823 W/m 10,3 km/h (2 Bft)
30.07.2013 11:14 21,7 C 25,7 C 69 % 1017,9 hPa 0,0 l/m 2 min 0 min 3,2 UV-I 661 W/m 20,6 km/h (4 Bft)
30.07.2013 11:16 21,7 C 25,1 C 68 % 1018,0 hPa 0,0 l/m 2 min 0 min 3,4 UV-I 687 W/m 20,6 km/h (4 Bft)
30.07.2013 11:18 21,8 C 25,1 C 69 % 1018,0 hPa 0,0 l/m 2 min 0 min 2,7 UV-I 557 W/m 10,3 km/h (2 Bft)
30.07.2013 11:20 21,9 C 25,1 C 70 % 1018,1 hPa 0,0 l/m 2 min 0 min 2,8 UV-I 580 W/m 12,9 km/h (3 Bft)
30.07.2013 11:22 22,0 C 24,6 C 68 % 1018,0 hPa 0,0 l/m 2 min 0 min 2,5 UV-I 476 W/m 10,3 km/h (2 Bft)
30.07.2013 11:24 21,9 C 24,0 C 67 % 1018,0 hPa 0,0 l/m 2 min 0 min 2,9 UV-I 468 W/m 10,3 km/h (2 Bft)
30.07.2013 11:26 21,9 C 23,4 C 67 % 1018,0 hPa 0,0 l/m 2 min 0 min 2,8 UV-I 584 W/m 10,3 km/h (2 Bft)
30.07.2013 11:28 21,8 C 24,0 C 68 % 1018,0 hPa 0,0 l/m 2 min 0 min 3,1 UV-I 652 W/m 7,7 km/h (2 Bft)
30.07.2013 11:30 21,9 C 24,0 C 70 % 1018,1 hPa 0,0 l/m 2 min 0 min 2,8 UV-I 652 W/m 10,3 km/h (2 Bft)
30.07.2013 11:32 22,1 C 24,0 C 69 % 1018,0 hPa 0,0 l/m 2 min 0 min 2,6 UV-I 512 W/m 7,7 km/h (2 Bft)
30.07.2013 11:34 22,2 C 24,0 C 68 % 1018,0 hPa 0,0 l/m 2 min 0 min 2,2 UV-I 485 W/m 12,9 km/h (3 Bft)
30.07.2013 11:36 22,0 C 22,9 C 67 % 1018,2 hPa 0,0 l/m 0 min 0 min 1,9 UV-I 269 W/m 15,4 km/h (3 Bft)
30.07.2013 11:38 21,8 C 22,9 C 68 % 1018,2 hPa 0,0 l/m 2 min 0 min 2,7 UV-I 455 W/m 12,9 km/h (3 Bft)
30.07.2013 11:40 21,7 C 22,9 C 67 % 1018,2 hPa 0,0 l/m 2 min 0 min 2,0 UV-I 487 W/m 7,7 km/h (2 Bft)
30.07.2013 11:42 21,6 C 22,9 C 68 % 1018,1 hPa 0,0 l/m 0 min 0 min 2,8 UV-I 359 W/m 15,4 km/h (3 Bft)
30.07.2013 11:44 21,7 C 24,0 C 70 % 1018,2 hPa 0,0 l/m 2 min 0 min 3,5 UV-I 559 W/m 12,9 km/h (3 Bft)
30.07.2013 11:46 21,8 C 24,6 C 69 % 1018,1 hPa 0,0 l/m 2 min 0 min 3,7 UV-I 559 W/m 12,9 km/h (3 Bft)
30.07.2013 11:48 21,9 C 25,1 C 69 % 1018,1 hPa 0,0 l/m 2 min 0 min 2,8 UV-I 559 W/m 10,3 km/h (2 Bft)
30.07.2013 11:50 22,1 C 24,6 C 67 % 1018,2 hPa 0,0 l/m 2 min 0 min 3,4 UV-I 504 W/m 15,4 km/h (3 Bft)
30.07.2013 11:52 22,0 C 24,0 C 67 % 1018,0 hPa 0,0 l/m 0 min 0 min 2,2 UV-I 406 W/m 12,9 km/h (3 Bft)
30.07.2013 11:54 21,9 C 22,9 C 66 % 1018,1 hPa 0,0 l/m 0 min 0 min 2,1 UV-I 359 W/m 20,6 km/h (4 Bft)
30.07.2013 11:56 21,7 C 22,9 C 67 % 1018,1 hPa 0,0 l/m 2 min 0 min 2,6 UV-I 436 W/m 18,0 km/h (3 Bft)
30.07.2013 11:58 21,7 C 23,4 C 68 % 1018,0 hPa 0,0 l/m 2 min 0 min 3,0 UV-I 436 W/m 12,9 km/h (3 Bft)
30.07.2013 12:00 21,7 C 24,0 C 68 % 1017,9 hPa 0,0 l/m 2 min 0 min 4,8 UV-I 626 W/m 12,9 km/h (3 Bft)
30.07.2013 12:02 21,8 C 25,1 C 67 % 1017,9 hPa 0,0 l/m 2 min 0 min 4,8 UV-I 803 W/m 15,4 km/h (3 Bft)
30.07.2013 12:06 22,4 C 26,2 C 66 % 1017,8 hPa 0,0 l/m 2 min 0 min 2,9 UV-I 536 W/m 20,6 km/h (4 Bft)
30.07.2013 12:08 22,4 C 24,6 C 65 % 1017,9 hPa 0,0 l/m 2 min 0 min 2,9 UV-I 533 W/m 28,3 km/h (4 Bft)
30.07.2013 12:10 22,2 C 24,0 C 65 % 1017,8 hPa 0,0 l/m 2 min 0 min 3,0 UV-I 510 W/m 20,6 km/h (4 Bft)
30.07.2013 12:12 22,1 C 24,0 C 66 % 1017,9 hPa 0,0 l/m 2 min 0 min 2,9 UV-I 490 W/m 12,9 km/h (3 Bft)
30.07.2013 12:14 21,9 C 23,4 C 66 % 1018,0 hPa 0,0 l/m 2 min 0 min 2,8 UV-I 536 W/m 10,3 km/h (2 Bft)
30.07.2013 12:16 21,8 C 23,4 C 67 % 1018,0 hPa 0,0 l/m 2 min 0 min 2,6 UV-I 496 W/m 12,9 km/h (3 Bft)
30.07.2013 12:18 21,9 C 23,4 C 68 % 1018,0 hPa 0,0 l/m 0 min 0 min 2,4 UV-I 420 W/m 7,7 km/h (2 Bft)
30.07.2013 12:20 21,9 C 22,9 C 67 % 1018,0 hPa 0,0 l/m 0 min 0 min 2,2 UV-I 311 W/m 10,3 km/h (2 Bft)
30.07.2013 12:22 21,8 C 22,9 C 68 % 1018,0 hPa 0,0 l/m 0 min 0 min 1,9 UV-I 341 W/m 2,6 km/h (1 Bft)
30.07.2013 12:24 21,7 C 22,3 C 68 % 1018,0 hPa 0,0 l/m 0 min 0 min 1,5 UV-I 325 W/m 15,4 km/h (3 Bft)
30.07.2013 12:26 21,6 C 22,3 C 68 % 1018,0 hPa 0,0 l/m 0 min 0 min 1,1 UV-I 232 W/m 15,4 km/h (3 Bft)
30.07.2013 12:28 21,5 C 22,3 C 68 % 1018,0 hPa 0,0 l/m 0 min 0 min 1,7 UV-I 313 W/m 7,7 km/h (2 Bft)
30.07.2013 12:30 21,5 C 22,3 C 69 % 1017,9 hPa 0,0 l/m 0 min 0 min 1,7 UV-I 309 W/m 7,7 km/h (2 Bft)
30.07.2013 12:32 21,5 C 22,3 C 69 % 1017,9 hPa 0,0 l/m 0 min 0 min 2,2 UV-I 396 W/m 12,9 km/h (3 Bft)
30.07.2013 12:34 21,6 C 22,9 C 70 % 1017,9 hPa 0,0 l/m 0 min 0 min 2,2 UV-I 396 W/m 12,9 km/h (3 Bft)
30.07.2013 12:36 21,7 C 22,9 C 68 % 1018,0 hPa 0,0 l/m 0 min 0 min 1,7 UV-I 334 W/m 10,3 km/h (2 Bft)
30.07.2013 12:38 21,7 C 22,9 C 69 % 1017,9 hPa 0,0 l/m 0 min 0 min 1,4 UV-I 269 W/m 7,7 km/h (2 Bft)
30.07.2013 12:40 21,7 C 22,9 C 68 % 1017,9 hPa 0,0 l/m 0 min 0 min 1,8 UV-I 309 W/m 7,7 km/h (2 Bft)
30.07.2013 12:42 21,7 C 22,9 C 69 % 1017,9 hPa 0,0 l/m 0 min 0 min 2,1 UV-I 346 W/m 10,3 km/h (2 Bft)
30.07.2013 12:44 21,7 C 22,3 C 68 % 1017,9 hPa 0,0 l/m 0 min 0 min 2,2 UV-I 359 W/m 12,9 km/h (3 Bft)
30.07.2013 12:46 21,6 C 22,3 C 68 % 1017,9 hPa 0,0 l/m 0 min 0 min 2,4 UV-I 396 W/m 10,3 km/h (2 Bft)
30.07.2013 12:48 21,6 C 22,9 C 69 % 1017,9 hPa 0,0 l/m 0 min 0 min 3,1 UV-I 438 W/m 28,3 km/h (4 Bft)
30.07.2013 12:50 21,8 C 22,9 C 69 % 1017,9 hPa 0,0 l/m 2 min 0 min 2,8 UV-I 524 W/m 7,7 km/h (2 Bft)
30.07.2013 12:52 21,9 C 22,9 C 69 % 1017,8 hPa 0,0 l/m 0 min 0 min 2,6 UV-I 410 W/m 2,6 km/h (1 Bft)
30.07.2013 12:54 21,9 C 22,9 C 67 % 1017,8 hPa 0,0 l/m 0 min 0 min 2,3 UV-I 390 W/m 18,0 km/h (3 Bft)
30.07.2013 12:56 21,9 C 22,9 C 67 % 1017,8 hPa 0,0 l/m 2 min 0 min 2,8 UV-I 454 W/m 20,6 km/h (4 Bft)
30.07.2013 12:58 21,9 C 22,9 C 67 % 1017,7 hPa 0,0 l/m 0 min 0 min 2,6 UV-I 439 W/m 10,3 km/h (2 Bft)
30.07.2013 13:00 22,0 C 22,9 C 67 % 1017,5 hPa 0,0 l/m 2 min 0 min 2,7 UV-I 496 W/m 20,6 km/h (4 Bft)
30.07.2013 13:02 22,1 C 23,4 C 67 % 1017,5 hPa 0,0 l/m 2 min 0 min 3,4 UV-I 471 W/m 5,1 km/h (1 Bft)
30.07.2013 13:06 22,6 C 24,6 C 67 % 1017,5 hPa 0,0 l/m 2 min 0 min 3,6 UV-I 471 W/m 18,0 km/h (3 Bft)
30.07.2013 13:08 22,8 C 25,1 C 67 % 1017,4 hPa 0,0 l/m 2 min 0 min 3,4 UV-I 793 W/m 5,1 km/h (1 Bft)
30.07.2013 13:10 23,0 C 25,1 C 67 % 1017,6 hPa 0,0 l/m 2 min 0 min 3,4 UV-I 962 W/m 18,0 km/h (3 Bft)
30.07.2013 13:12 23,1 C 25,7 C 65 % 1017,7 hPa 0,0 l/m 2 min 0 min 3,1 UV-I 944 W/m 18,0 km/h (3 Bft)
30.07.2013 13:14 23,2 C 25,1 C 65 % 1017,7 hPa 0,0 l/m 2 min 0 min 2,7 UV-I 501 W/m 18,0 km/h (3 Bft)
30.07.2013 13:16 23,1 C 24,6 C 65 % 1017,6 hPa 0,0 l/m 0 min 0 min 2,2 UV-I 401 W/m 15,4 km/h (3 Bft)
30.07.2013 13:18 22,9 C 24,0 C 66 % 1017,6 hPa 0,0 l/m 0 min 0 min 1,7 UV-I 315 W/m 10,3 km/h (2 Bft)
30.07.2013 13:20 22,6 C 23,4 C 65 % 1017,7 hPa 0,0 l/m 0 min 0 min 1,1 UV-I 223 W/m 23,2 km/h (4 Bft)
30.07.2013 13:22 22,4 C 22,9 C 65 % 1017,7 hPa 0,0 l/m 0 min 0 min 1,0 UV-I 202 W/m 18,0 km/h (3 Bft)
30.07.2013 13:24 22,2 C 22,3 C 67 % 1017,7 hPa 0,0 l/m 0 min 0 min 1,5 UV-I 348 W/m 7,7 km/h (2 Bft)
30.07.2013 13:26 22,1 C 22,9 C 67 % 1017,7 hPa 0,0 l/m 2 min 0 min 2,6 UV-I 475 W/m 15,4 km/h (3 Bft)
30.07.2013 13:28 22,2 C 22,9 C 68 % 1017,6 hPa 0,0 l/m 2 min 0 min 2,9 UV-I 536 W/m 7,7 km/h (2 Bft)
30.07.2013 13:30 22,4 C 23,4 C 67 % 1017,7 hPa 0,0 l/m 2 min 0 min 3,0 UV-I 580 W/m 12,9 km/h (3 Bft)
30.07.2013 13:32 22,6 C 24,0 C 67 % 1017,6 hPa 0,0 l/m 2 min 0 min 3,1 UV-I 601 W/m 7,7 km/h (2 Bft)
30.07.2013 13:34 22,8 C 24,6 C 67 % 1017,6 hPa 0,0 l/m 2 min 0 min 3,0 UV-I 554 W/m 0,0 km/h (0 Bft)
30.07.2013 13:36 23,0 C 24,6 C 67 % 1017,5 hPa 0,0 l/m 2 min 0 min 3,0 UV-I 563 W/m 10,3 km/h (2 Bft)
30.07.2013 13:38 23,1 C 24,6 C 66 % 1017,5 hPa 0,0 l/m 2 min 0 min 3,0 UV-I 563 W/m 12,9 km/h (3 Bft)
30.07.2013 13:40 23,1 C 24,6 C 66 % 1017,5 hPa 0,0 l/m 2 min 0 min 3,1 UV-I 615 W/m 10,3 km/h (2 Bft)
30.07.2013 13:42 23,1 C 24,6 C 67 % 1017,5 hPa 0,0 l/m 2 min 0 min 3,0 UV-I 499 W/m 12,9 km/h (3 Bft)
30.07.2013 13:44 23,0 C 24,6 C 66 % 1017,4 hPa 0,0 l/m 0 min 0 min 2,4 UV-I 403 W/m 15,4 km/h (3 Bft)
30.07.2013 13:46 22,9 C 24,0 C 65 % 1017,5 hPa 0,0 l/m 0 min 0 min 2,2 UV-I 355 W/m 15,4 km/h (3 Bft)
30.07.2013 13:48 22,8 C 24,0 C 67 % 1017,4 hPa 0,0 l/m 0 min 0 min 2,1 UV-I 343 W/m 10,3 km/h (2 Bft)
30.07.2013 13:50 22,7 C 23,4 C 67 % 1017,3 hPa 0,0 l/m 0 min 0 min 2,0 UV-I 355 W/m 15,4 km/h (3 Bft)
30.07.2013 13:52 22,6 C 23,4 C 66 % 1017,4 hPa 0,0 l/m 0 min 0 min 2,3 UV-I 403 W/m 12,9 km/h (3 Bft)
30.07.2013 13:54 22,5 C 23,4 C 66 % 1017,4 hPa 0,0 l/m 0 min 0 min 2,3 UV-I 415 W/m 12,9 km/h (3 Bft)
30.07.2013 13:56 22,4 C 23,4 C 66 % 1017,4 hPa 0,0 l/m 0 min 0 min 2,1 UV-I 373 W/m 12,9 km/h (3 Bft)
30.07.2013 13:58 22,3 C 22,9 C 66 % 1017,3 hPa 0,0 l/m 0 min 0 min 2,3 UV-I 415 W/m 15,4 km/h (3 Bft)
30.07.2013 14:00 22,3 C 23,4 C 66 % 1017,4 hPa 0,0 l/m 0 min 0 min 2,4 UV-I 408 W/m 20,6 km/h (4 Bft)
30.07.2013 14:02 22,4 C 22,9 C 65 % 1017,4 hPa 0,0 l/m 0 min 0 min 2,0 UV-I 360 W/m 12,9 km/h (3 Bft)
30.07.2013 14:06 22,6 C 22,9 C 65 % 1017,4 hPa 0,0 l/m 0 min 0 min 2,2 UV-I 410 W/m 15,4 km/h (3 Bft)
30.07.2013 14:08 22,6 C 23,4 C 65 % 1017,3 hPa 0,0 l/m 2 min 0 min 2,8 UV-I 485 W/m 10,3 km/h (2 Bft)
30.07.2013 14:10 22,7 C 23,4 C 65 % 1017,2 hPa 0,0 l/m 2 min 0 min 3,2 UV-I 582 W/m 23,2 km/h (4 Bft)
30.07.2013 14:12 22,8 C 24,0 C 65 % 1017,2 hPa 0,0 l/m 2 min 0 min 3,2 UV-I 571 W/m 15,4 km/h (3 Bft)
30.07.2013 14:14 22,8 C 24,0 C 64 % 1017,2 hPa 0,0 l/m 2 min 0 min 3,2 UV-I 594 W/m 15,4 km/h (3 Bft)
30.07.2013 14:16 22,8 C 24,0 C 65 % 1017,2 hPa 0,0 l/m 2 min 0 min 3,1 UV-I 487 W/m 15,4 km/h (3 Bft)
30.07.2013 14:18 22,9 C 24,0 C 64 % 1017,1 hPa 0,0 l/m 0 min 0 min 2,4 UV-I 406 W/m 18,0 km/h (3 Bft)
30.07.2013 14:20 22,8 C 23,4 C 65 % 1017,1 hPa 0,0 l/m 0 min 0 min 2,2 UV-I 387 W/m 12,9 km/h (3 Bft)
30.07.2013 14:22 22,8 C 23,4 C 64 % 1017,1 hPa 0,0 l/m 0 min 0 min 2,0 UV-I 366 W/m 12,9 km/h (3 Bft)
30.07.2013 14:24 22,8 C 23,4 C 65 % 1017,1 hPa 0,0 l/m 0 min 0 min 1,8 UV-I 313 W/m 2,6 km/h (1 Bft)
30.07.2013 14:26 22,8 C 23,4 C 65 % 1017,0 hPa 0,0 l/m 0 min 0 min 1,6 UV-I 294 W/m 12,9 km/h (3 Bft)
30.07.2013 14:28 22,8 C 23,4 C 65 % 1017,1 hPa 0,0 l/m 0 min 0 min 1,5 UV-I 279 W/m 5,1 km/h (1 Bft)
30.07.2013 14:30 22,7 C 22,9 C 64 % 1017,1 hPa 0,0 l/m 0 min 0 min 1,3 UV-I 264 W/m 12,9 km/h (3 Bft)
30.07.2013 14:32 22,6 C 22,9 C 64 % 1017,2 hPa 0,0 l/m 0 min 0 min 1,3 UV-I 239 W/m 15,4 km/h (3 Bft)
30.07.2013 14:34 22,5 C 22,9 C 65 % 1017,1 hPa 0,0 l/m 0 min 0 min 1,3 UV-I 269 W/m 5,1 km/h (1 Bft)
30.07.2013 14:36 22,6 C 22,9 C 66 % 1017,1 hPa 0,0 l/m 0 min 0 min 1,8 UV-I 316 W/m 0,0 km/h (0 Bft)
30.07.2013 14:38 22,6 C 22,9 C 66 % 1017,1 hPa 0,0 l/m 0 min 0 min 1,9 UV-I 336 W/m 0,0 km/h (0 Bft)
30.07.2013 14:40 22,8 C 23,4 C 67 % 1017,1 hPa 0,0 l/m 0 min 0 min 1,9 UV-I 345 W/m 5,1 km/h (1 Bft)
30.07.2013 14:42 22,8 C 23,4 C 66 % 1017,1 hPa 0,0 l/m 0 min 0 min 1,9 UV-I 339 W/m 7,7 km/h (2 Bft)
30.07.2013 14:44 22,8 C 23,4 C 65 % 1017,1 hPa 0,0 l/m 0 min 0 min 1,7 UV-I 320 W/m 12,9 km/h (3 Bft)
30.07.2013 14:46 22,8 C 22,9 C 65 % 1017,1 hPa 0,0 l/m 0 min 0 min 1,6 UV-I 297 W/m 23,2 km/h (4 Bft)
30.07.2013 14:48 22,7 C 22,9 C 65 % 1017,2 hPa 0,0 l/m 0 min 0 min 1,5 UV-I 285 W/m 7,7 km/h (2 Bft)
30.07.2013 14:50 22,7 C 22,9 C 65 % 1017,0 hPa 0,0 l/m 0 min 0 min 1,5 UV-I 283 W/m 10,3 km/h (2 Bft)
30.07.2013 14:52 22,6 C 22,9 C 65 % 1017,0 hPa 0,0 l/m 0 min 0 min 1,5 UV-I 287 W/m 12,9 km/h (3 Bft)
30.07.2013 14:54 22,6 C 22,9 C 66 % 1017,0 hPa 0,0 l/m 0 min 0 min 1,4 UV-I 269 W/m 15,4 km/h (3 Bft)
30.07.2013 14:56 22,6 C 22,9 C 65 % 1017,0 hPa 0,0 l/m 0 min 0 min 1,3 UV-I 255 W/m 10,3 km/h (2 Bft)
30.07.2013 14:58 22,6 C 22,9 C 65 % 1016,9 hPa 0,0 l/m 0 min 0 min 1,3 UV-I 244 W/m 7,7 km/h (2 Bft)
30.07.2013 15:00 22,6 C 22,9 C 66 % 1016,9 hPa 0,0 l/m 0 min 0 min 1,2 UV-I 234 W/m 0,0 km/h (0 Bft)
30.07.2013 15:02 22,6 C 22,9 C 66 % 1016,9 hPa 0,0 l/m 0 min 0 min 1,1 UV-I 227 W/m 5,1 km/h (1 Bft)
30.07.2013 15:06 22,5 C 22,9 C 66 % 1016,8 hPa 0,0 l/m 0 min 0 min 1,3 UV-I 258 W/m 7,7 km/h (2 Bft)
30.07.2013 15:08 22,4 C 22,9 C 67 % 1016,7 hPa 0,0 l/m 0 min 0 min 1,5 UV-I 283 W/m 7,7 km/h (2 Bft)
30.07.2013 15:10 22,6 C 22,9 C 65 % 1016,8 hPa 0,0 l/m 0 min 0 min 1,5 UV-I 288 W/m 7,7 km/h (2 Bft)
30.07.2013 15:12 22,6 C 22,9 C 66 % 1016,8 hPa 0,0 l/m 0 min 0 min 1,6 UV-I 287 W/m 5,1 km/h (1 Bft)
30.07.2013 15:14 22,6 C 22,9 C 65 % 1016,8 hPa 0,0 l/m 0 min 0 min 1,6 UV-I 308 W/m 12,9 km/h (3 Bft)
30.07.2013 15:16 22,6 C 22,9 C 66 % 1016,8 hPa 0,0 l/m 0 min 0 min 1,6 UV-I 292 W/m 5,1 km/h (1 Bft)
30.07.2013 15:18 22,7 C 22,9 C 66 % 1016,7 hPa 0,0 l/m 0 min 0 min 1,5 UV-I 285 W/m 12,9 km/h (3 Bft)
30.07.2013 15:20 22,7 C 22,9 C 65 % 1016,7 hPa 0,0 l/m 0 min 0 min 1,5 UV-I 279 W/m 5,1 km/h (1 Bft)
30.07.2013 15:22 22,7 C 22,9 C 66 % 1016,7 hPa 0,0 l/m 0 min 0 min 1,4 UV-I 264 W/m 5,1 km/h (1 Bft)
30.07.2013 15:24 22,7 C 22,9 C 66 % 1016,7 hPa 0,0 l/m 0 min 0 min 1,3 UV-I 260 W/m 10,3 km/h (2 Bft)
30.07.2013 15:26 22,6 C 22,9 C 67 % 1016,7 hPa 0,0 l/m 0 min 0 min 1,3 UV-I 262 W/m 7,7 km/h (2 Bft)
30.07.2013 15:28 22,7 C 22,9 C 66 % 1016,7 hPa 0,0 l/m 0 min 0 min 1,3 UV-I 246 W/m 5,1 km/h (1 Bft)
30.07.2013 15:30 22,7 C 22,9 C 66 % 1016,7 hPa 0,0 l/m 0 min 0 min 1,2 UV-I 243 W/m 10,3 km/h (2 Bft)
30.07.2013 15:32 22,6 C 22,9 C 67 % 1016,8 hPa 0,0 l/m 0 min 0 min 1,1 UV-I 246 W/m 12,9 km/h (3 Bft)
30.07.2013 15:34 22,5 C 22,3 C 67 % 1016,7 hPa 0,0 l/m 0 min 0 min 1,2 UV-I 244 W/m 15,4 km/h (3 Bft)
30.07.2013 15:36 22,4 C 22,3 C 67 % 1016,7 hPa 0,0 l/m 0 min 0 min 1,3 UV-I 248 W/m 12,9 km/h (3 Bft)
30.07.2013 15:38 22,3 C 22,3 C 68 % 1016,7 hPa 0,0 l/m 0 min 0 min 1,3 UV-I 257 W/m 15,4 km/h (3 Bft)
30.07.2013 15:40 22,3 C 22,3 C 68 % 1016,7 hPa 0,0 l/m 0 min 0 min 1,3 UV-I 257 W/m 7,7 km/h (2 Bft)
30.07.2013 15:42 22,3 C 22,3 C 69 % 1016,7 hPa 0,0 l/m 0 min 0 min 1,2 UV-I 246 W/m 2,6 km/h (1 Bft)
30.07.2013 15:44 22,3 C 22,3 C 69 % 1016,7 hPa 0,0 l/m 0 min 0 min 1,3 UV-I 250 W/m 5,1 km/h (1 Bft)
30.07.2013 15:46 22,3 C 22,9 C 69 % 1016,7 hPa 0,0 l/m 0 min 0 min 1,3 UV-I 260 W/m 7,7 km/h (2 Bft)
30.07.2013 15:48 22,3 C 22,3 C 68 % 1016,8 hPa 0,0 l/m 0 min 0 min 1,2 UV-I 248 W/m 23,2 km/h (4 Bft)
30.07.2013 15:50 22,3 C 22,3 C 68 % 1016,8 hPa 0,0 l/m 0 min 0 min 1,0 UV-I 221 W/m 12,9 km/h (3 Bft)
30.07.2013 15:52 22,2 C 22,3 C 69 % 1016,7 hPa 0,0 l/m 0 min 0 min 0,6 UV-I 160 W/m 10,3 km/h (2 Bft)
30.07.2013 15:54 22,1 C 21,8 C 69 % 1016,7 hPa 0,0 l/m 0 min 0 min 0,0 UV-I 134 W/m 12,9 km/h (3 Bft)
30.07.2013 15:56 22,0 C 21,8 C 69 % 1016,7 hPa 0,0 l/m 0 min 0 min 0,0 UV-I 120 W/m 18,0 km/h (3 Bft)
30.07.2013 15:58 21,9 C 21,2 C 69 % 1016,7 hPa 0,0 l/m 0 min 0 min 0,0 UV-I 118 W/m 12,9 km/h (3 Bft)
30.07.2013 16:00 21,8 C 21,2 C 70 % 1016,7 hPa 0,0 l/m 0 min 0 min 0,0 UV-I 120 W/m 18,0 km/h (3 Bft)
30.07.2013 16:02 21,7 C 21,2 C 70 % 1016,8 hPa 0,0 l/m 0 min 0 min 0,0 UV-I 127 W/m 28,3 km/h (4 Bft)
30.07.2013 16:06 21,6 C 20,7 C 71 % 1016,7 hPa 0,0 l/m 0 min 0 min 0,5 UV-I 156 W/m 15,4 km/h (3 Bft)
30.07.2013 16:08 21,5 C 20,7 C 71 % 1016,7 hPa 0,0 l/m 0 min 0 min 0,6 UV-I 169 W/m 18,0 km/h (3 Bft)
30.07.2013 16:10 21,4 C 21,2 C 72 % 1016,7 hPa 0,0 l/m 0 min 0 min 1,0 UV-I 253 W/m 10,3 km/h (2 Bft)
30.07.2013 16:12 21,4 C 21,2 C 72 % 1016,7 hPa 0,0 l/m 0 min 0 min 1,3 UV-I 313 W/m 18,0 km/h (3 Bft)
30.07.2013 16:14 21,4 C 21,8 C 72 % 1016,7 hPa 0,0 l/m 0 min 0 min 1,4 UV-I 316 W/m 10,3 km/h (2 Bft)
30.07.2013 16:16 21,6 C 21,8 C 71 % 1016,8 hPa 0,0 l/m 0 min 0 min 1,6 UV-I 334 W/m 12,9 km/h (3 Bft)
30.07.2013 16:18 21,7 C 21,8 C 71 % 1016,7 hPa 0,0 l/m 0 min 0 min 1,6 UV-I 345 W/m 7,7 km/h (2 Bft)
30.07.2013 16:20 21,8 C 21,8 C 71 % 1016,7 hPa 0,0 l/m 0 min 0 min 1,5 UV-I 301 W/m 12,9 km/h (3 Bft)
30.07.2013 16:22 21,8 C 21,8 C 70 % 1016,9 hPa 0,0 l/m 0 min 0 min 1,3 UV-I 283 W/m 25,7 km/h (4 Bft)
30.07.2013 16:24 21,8 C 21,8 C 70 % 1016,8 hPa 0,0 l/m 0 min 0 min 1,4 UV-I 323 W/m 18,0 km/h (3 Bft)
30.07.2013 16:26 21,8 C 22,3 C 71 % 1016,7 hPa 0,0 l/m 0 min 0 min 1,5 UV-I 320 W/m 12,9 km/h (3 Bft)
30.07.2013 16:28 21,8 C 21,8 C 70 % 1016,7 hPa 0,0 l/m 0 min 0 min 1,3 UV-I 287 W/m 20,6 km/h (4 Bft)
30.07.2013 16:30 21,8 C 21,8 C 70 % 1016,8 hPa 0,0 l/m 0 min 0 min 1,2 UV-I 276 W/m 10,3 km/h (2 Bft)
30.07.2013 16:32 21,8 C 21,8 C 70 % 1016,8 hPa 0,0 l/m 0 min 0 min 1,2 UV-I 290 W/m 12,9 km/h (3 Bft)
30.07.2013 16:34 21,8 C 21,8 C 70 % 1016,8 hPa 0,0 l/m 0 min 0 min 1,3 UV-I 294 W/m 18,0 km/h (3 Bft)
30.07.2013 16:36 21,8 C 21,8 C 70 % 1016,8 hPa 0,0 l/m 0 min 0 min 1,2 UV-I 278 W/m 18,0 km/h (3 Bft)
30.07.2013 16:38 21,8 C 21,8 C 71 % 1016,8 hPa 0,0 l/m 0 min 0 min 1,1 UV-I 258 W/m 15,4 km/h (3 Bft)
30.07.2013 16:40 21,8 C 21,8 C 71 % 1016,9 hPa 0,0 l/m 0 min 0 min 1,1 UV-I 257 W/m 7,7 km/h (2 Bft)
30.07.2013 16:42 21,8 C 22,3 C 71 % 1016,9 hPa 0,0 l/m 0 min 0 min 1,1 UV-I 255 W/m 10,3 km/h (2 Bft)
30.07.2013 16:44 21,7 C 21,8 C 71 % 1016,8 hPa 0,0 l/m 0 min 0 min 1,1 UV-I 265 W/m 15,4 km/h (3 Bft)
30.07.2013 16:46 21,7 C 21,8 C 71 % 1016,8 hPa 0,0 l/m 0 min 0 min 1,3 UV-I 313 W/m 18,0 km/h (3 Bft)
30.07.2013 16:48 21,7 C 21,8 C 70 % 1016,8 hPa 0,0 l/m 0 min 0 min 1,4 UV-I 341 W/m 18,0 km/h (3 Bft)
30.07.2013 16:50 21,7 C 21,8 C 70 % 1016,7 hPa 0,0 l/m 0 min 0 min 1,4 UV-I 336 W/m 23,2 km/h (4 Bft)
30.07.2013 16:52 21,7 C 22,3 C 71 % 1016,7 hPa 0,0 l/m 0 min 0 min 1,3 UV-I 313 W/m 15,4 km/h (3 Bft)
30.07.2013 16:54 21,8 C 22,3 C 71 % 1016,7 hPa 0,0 l/m 0 min 0 min 1,3 UV-I 320 W/m 5,1 km/h (1 Bft)
30.07.2013 16:56 21,9 C 22,3 C 71 % 1016,8 hPa 0,0 l/m 2 min 0 min 1,6 UV-I 360 W/m 20,6 km/h (4 Bft)
30.07.2013 16:58 21,8 C 22,3 C 71 % 1016,7 hPa 0,0 l/m 2 min 0 min 1,4 UV-I 357 W/m 25,7 km/h (4 Bft)
30.07.2013 17:00 21,8 C 21,8 C 71 % 1016,8 hPa 0,0 l/m 0 min 0 min 1,2 UV-I 309 W/m 20,6 km/h (4 Bft)
30.07.2013 17:02 21,7 C 21,8 C 72 % 1016,8 hPa 0,0 l/m 0 min 0 min 0,9 UV-I 211 W/m 18,0 km/h (3 Bft)
30.07.2013 17:06 21,6 C 21,2 C 72 % 1016,8 hPa 0,0 l/m 0 min 0 min 0,7 UV-I 211 W/m 18,0 km/h (3 Bft)
30.07.2013 17:08 21,5 C 21,8 C 73 % 1016,9 hPa 0,0 l/m 0 min 0 min 0,8 UV-I 227 W/m 12,9 km/h (3 Bft)
30.07.2013 17:10 21,4 C 21,8 C 72 % 1016,8 hPa 0,0 l/m 0 min 0 min 0,8 UV-I 232 W/m 20,6 km/h (4 Bft)
30.07.2013 17:12 21,4 C 21,8 C 71 % 1016,9 hPa 0,0 l/m 0 min 0 min 0,9 UV-I 250 W/m 15,4 km/h (3 Bft)
30.07.2013 17:14 21,4 C 21,8 C 71 % 1016,9 hPa 0,0 l/m 0 min 0 min 0,9 UV-I 260 W/m 15,4 km/h (3 Bft)
30.07.2013 17:16 21,4 C 21,8 C 71 % 1016,8 hPa 0,0 l/m 0 min 0 min 0,8 UV-I 250 W/m 12,9 km/h (3 Bft)
30.07.2013 17:18 21,4 C 21,2 C 68 % 1016,8 hPa 0,0 l/m 0 min 0 min 0,9 UV-I 244 W/m 28,3 km/h (4 Bft)
30.07.2013 17:20 21,3 C 21,2 C 67 % 1016,9 hPa 0,0 l/m 0 min 0 min 0,8 UV-I 223 W/m 12,9 km/h (3 Bft)
30.07.2013 17:22 21,3 C 21,2 C 68 % 1016,9 hPa 0,0 l/m 0 min 0 min 0,7 UV-I 216 W/m 12,9 km/h (3 Bft)
30.07.2013 17:24 21,2 C 21,2 C 68 % 1016,9 hPa 0,0 l/m 0 min 0 min 0,7 UV-I 227 W/m 20,6 km/h (4 Bft)
30.07.2013 17:26 21,2 C 21,2 C 67 % 1016,8 hPa 0,0 l/m 0 min 0 min 0,7 UV-I 255 W/m 18,0 km/h (3 Bft)
30.07.2013 17:28 21,2 C 21,2 C 67 % 1016,9 hPa 0,0 l/m 0 min 0 min 0,6 UV-I 223 W/m 20,6 km/h (4 Bft)
30.07.2013 17:30 21,2 C 21,2 C 66 % 1016,8 hPa 0,0 l/m 0 min 0 min 0,5 UV-I 200 W/m 18,0 km/h (3 Bft)
30.07.2013 17:32 21,1 C 21,2 C 66 % 1016,8 hPa 0,0 l/m 0 min 0 min 0,5 UV-I 193 W/m 15,4 km/h (3 Bft)
30.07.2013 17:34 21,1 C 21,2 C 65 % 1016,8 hPa 0,0 l/m 0 min 0 min 0,0 UV-I 169 W/m 7,7 km/h (2 Bft)
30.07.2013 17:36 21,1 C 20,7 C 65 % 1016,8 hPa 0,0 l/m 0 min 0 min 0,0 UV-I 176 W/m 10,3 km/h (2 Bft)
30.07.2013 17:38 21,0 C 20,7 C 65 % 1016,8 hPa 0,0 l/m 0 min 0 min 0,6 UV-I 237 W/m 20,6 km/h (4 Bft)
30.07.2013 17:40 21,0 C 21,2 C 65 % 1016,7 hPa 0,0 l/m 0 min 0 min 0,6 UV-I 248 W/m 15,4 km/h (3 Bft)
30.07.2013 17:42 21,1 C 21,2 C 65 % 1016,7 hPa 0,0 l/m 2 min 0 min 0,8 UV-I 294 W/m 12,9 km/h (3 Bft)
30.07.2013 17:44 21,1 C 21,2 C 65 % 1016,7 hPa 0,0 l/m 0 min 0 min 0,7 UV-I 243 W/m 18,0 km/h (3 Bft)
30.07.2013 17:46 21,1 C 21,2 C 65 % 1016,7 hPa 0,0 l/m 0 min 0 min 0,7 UV-I 237 W/m 18,0 km/h (3 Bft)
30.07.2013 17:48 21,1 C 21,2 C 65 % 1016,6 hPa 0,0 l/m 2 min 0 min 0,9 UV-I 323 W/m 20,6 km/h (4 Bft)
30.07.2013 17:50 21,1 C 21,2 C 64 % 1016,7 hPa 0,0 l/m 0 min 0 min 0,7 UV-I 234 W/m 20,6 km/h (4 Bft)
30.07.2013 17:52 21,1 C 21,2 C 65 % 1016,7 hPa 0,0 l/m 0 min 0 min 0,5 UV-I 200 W/m 20,6 km/h (4 Bft)
30.07.2013 17:54 21,1 C 21,2 C 65 % 1016,7 hPa 0,0 l/m 0 min 0 min 0,6 UV-I 232 W/m 15,4 km/h (3 Bft)
30.07.2013 17:56 21,0 C 21,2 C 65 % 1016,6 hPa 0,0 l/m 0 min 0 min 0,6 UV-I 211 W/m 10,3 km/h (2 Bft)
30.07.2013 17:58 21,0 C 21,2 C 66 % 1016,7 hPa 0,0 l/m 0 min 0 min 0,6 UV-I 216 W/m 10,3 km/h (2 Bft)
30.07.2013 18:00 20,9 C 21,2 C 66 % 1016,6 hPa 0,0 l/m 0 min 0 min 0,5 UV-I 179 W/m 15,4 km/h (3 Bft)
30.07.2013 18:02 20,9 C 21,2 C 66 % 1016,7 hPa 0,0 l/m 0 min 0 min 0,0 UV-I 158 W/m 10,3 km/h (2 Bft)
30.07.2013 18:06 20,8 C 20,7 C 66 % 1016,7 hPa 0,0 l/m 0 min 0 min 0,0 UV-I 134 W/m 12,9 km/h (3 Bft)
30.07.2013 18:08 20,8 C 20,7 C 67 % 1016,6 hPa 0,0 l/m 0 min 0 min 0,0 UV-I 120 W/m 12,9 km/h (3 Bft)
30.07.2013 18:10 20,8 C 20,7 C 67 % 1016,6 hPa 0,0 l/m 0 min 0 min 0,0 UV-I 102 W/m 5,1 km/h (1 Bft)
30.07.2013 18:12 20,8 C 20,1 C 67 % 1016,5 hPa 0,0 l/m 0 min 0 min 0,0 UV-I 90 W/m 12,9 km/h (3 Bft)
30.07.2013 18:14 20,7 C 20,1 C 67 % 1016,5 hPa 0,0 l/m 0 min 0 min 0,0 UV-I 91 W/m 12,9 km/h (3 Bft)
30.07.2013 18:16 20,7 C 20,1 C 68 % 1016,4 hPa 0,0 l/m 0 min 0 min 0,0 UV-I 118 W/m 12,9 km/h (3 Bft)
30.07.2013 18:18 20,7 C 20,1 C 68 % 1016,4 hPa 0,0 l/m 0 min 0 min 0,0 UV-I 153 W/m 5,1 km/h (1 Bft)
30.07.2013 18:20 20,7 C 20,7 C 69 % 1016,4 hPa 0,0 l/m 0 min 0 min 0,0 UV-I 163 W/m 10,3 km/h (2 Bft)
30.07.2013 18:22 20,7 C 20,7 C 68 % 1016,4 hPa 0,0 l/m 0 min 0 min 0,0 UV-I 134 W/m 12,9 km/h (3 Bft)
30.07.2013 18:24 20,8 C 20,7 C 68 % 1016,4 hPa 0,0 l/m 0 min 0 min 0,0 UV-I 107 W/m 7,7 km/h (2 Bft)
30.07.2013 18:26 20,7 C 20,7 C 68 % 1016,3 hPa 0,0 l/m 0 min 0 min 0,0 UV-I 130 W/m 10,3 km/h (2 Bft)
30.07.2013 18:28 20,7 C 20,7 C 68 % 1016,3 hPa 0,0 l/m 0 min 0 min 0,0 UV-I 144 W/m 18,0 km/h (3 Bft)
30.07.2013 18:30 20,7 C 20,7 C 68 % 1016,3 hPa 0,0 l/m 0 min 0 min 0,0 UV-I 185 W/m 10,3 km/h (2 Bft)
30.07.2013 18:32 20,7 C 20,7 C 68 % 1016,2 hPa 0,0 l/m 0 min 0 min 0,0 UV-I 172 W/m 18,0 km/h (3 Bft)
30.07.2013 18:34 20,8 C 20,7 C 68 % 1016,2 hPa 0,0 l/m 0 min 0 min 0,0 UV-I 134 W/m 10,3 km/h (2 Bft)
30.07.2013 18:36 20,8 C 20,7 C 69 % 1016,3 hPa 0,0 l/m 0 min 0 min 0,0 UV-I 123 W/m 12,9 km/h (3 Bft)
30.07.2013 18:38 20,8 C 20,7 C 68 % 1016,3 hPa 0,0 l/m 0 min 0 min 0,0 UV-I 128 W/m 15,4 km/h (3 Bft)
30.07.2013 18:40 20,8 C 20,1 C 68 % 1016,2 hPa 0,0 l/m 0 min 0 min 0,0 UV-I 111 W/m 7,7 km/h (2 Bft)
30.07.2013 18:42 20,7 C 20,1 C 68 % 1016,1 hPa 0,0 l/m 0 min 0 min 0,0 UV-I 88 W/m 10,3 km/h (2 Bft)
30.07.2013 18:44 20,7 C 20,1 C 68 % 1016,1 hPa 0,0 l/m 0 min 0 min 0,0 UV-I 67 W/m 10,3 km/h (2 Bft)
30.07.2013 18:46 20,7 C 20,1 C 68 % 1016,1 hPa 0,0 l/m 0 min 0 min 0,0 UV-I 62 W/m 12,9 km/h (3 Bft)
30.07.2013 18:48 20,7 C 20,1 C 68 % 1016,1 hPa 0,0 l/m 0 min 0 min 0,0 UV-I 84 W/m 2,6 km/h (1 Bft)
30.07.2013 18:50 20,6 C 20,1 C 69 % 1016,0 hPa 0,0 l/m 0 min 0 min 0,0 UV-I 83 W/m 0,0 km/h (0 Bft)
30.07.2013 18:52 20,6 C 20,1 C 69 % 1016,1 hPa 0,0 l/m 0 min 0 min 0,0 UV-I 69 W/m 10,3 km/h (2 Bft)
30.07.2013 18:54 20,6 C 20,1 C 69 % 1016,1 hPa 0,0 l/m 0 min 0 min 0,0 UV-I 72 W/m 12,9 km/h (3 Bft)
30.07.2013 18:56 20,6 C 20,1 C 70 % 1016,2 hPa 0,0 l/m 0 min 0 min 0,0 UV-I 56 W/m 12,9 km/h (3 Bft)
30.07.2013 18:58 20,6 C 20,1 C 70 % 1016,1 hPa 0,0 l/m 0 min 0 min 0,0 UV-I 70 W/m 5,1 km/h (1 Bft)
30.07.2013 19:00 20,6 C 20,1 C 70 % 1016,0 hPa 0,0 l/m 0 min 0 min 0,0 UV-I 67 W/m 2,6 km/h (1 Bft)
30.07.2013 19:02 20,5 C 20,1 C 70 % 1015,9 hPa 0,0 l/m 0 min 0 min 0,0 UV-I 56 W/m 0,0 km/h (0 Bft)
30.07.2013 19:06 20,5 C 19,6 C 70 % 1015,8 hPa 0,0 l/m 0 min 0 min 0,0 UV-I 28 W/m 10,3 km/h (2 Bft)
30.07.2013 19:08 20,4 C 19,6 C 71 % 1015,8 hPa 0,0 l/m 0 min 0 min 0,0 UV-I 32 W/m 12,9 km/h (3 Bft)
30.07.2013 19:10 20,4 C 19,6 C 71 % 1015,8 hPa 0,0 l/m 0 min 0 min 0,0 UV-I 35 W/m 18,0 km/h (3 Bft)
30.07.2013 19:12 20,4 C 19,6 C 71 % 1015,8 hPa 0,0 l/m 0 min 0 min 0,0 UV-I 44 W/m 12,9 km/h (3 Bft)
30.07.2013 19:14 20,4 C 19,6 C 72 % 1015,9 hPa 0,0 l/m 0 min 0 min 0,0 UV-I 76 W/m 5,1 km/h (1 Bft)
30.07.2013 19:16 20,4 C 19,6 C 72 % 1015,8 hPa 0,0 l/m 0 min 0 min 0,0 UV-I 111 W/m 10,3 km/h (2 Bft)
30.07.2013 19:18 20,4 C 20,1 C 72 % 1015,8 hPa 0,0 l/m 0 min 0 min 0,0 UV-I 83 W/m 5,1 km/h (1 Bft)
30.07.2013 19:20 20,5 C 20,1 C 72 % 1015,8 hPa 0,0 l/m 0 min 0 min 0,0 UV-I 74 W/m 12,9 km/h (3 Bft)
30.07.2013 19:22 20,5 C 20,1 C 72 % 1015,7 hPa 0,0 l/m 0 min 0 min 0,0 UV-I 69 W/m 15,4 km/h (3 Bft)
30.07.2013 19:24 20,5 C 20,1 C 73 % 1015,6 hPa 0,0 l/m 0 min 0 min 0,0 UV-I 56 W/m 2,6 km/h (1 Bft)
30.07.2013 19:26 20,5 C 19,6 C 73 % 1015,6 hPa 0,0 l/m 0 min 0 min 0,0 UV-I 44 W/m 10,3 km/h (2 Bft)
30.07.2013 19:28 20,4 C 19,6 C 73 % 1015,6 hPa 0,0 l/m 0 min 0 min 0,0 UV-I 26 W/m 10,3 km/h (2 Bft)
30.07.2013 19:30 20,4 C 19,6 C 73 % 1015,6 hPa 0,0 l/m 0 min 0 min 0,0 UV-I 23 W/m 15,4 km/h (3 Bft)
30.07.2013 19:32 20,4 C 19,6 C 74 % 1015,6 hPa 0,0 l/m 0 min 0 min 0,0 UV-I 37 W/m 5,1 km/h (1 Bft)
30.07.2013 19:34 20,4 C 19,6 C 74 % 1015,6 hPa 0,0 l/m 0 min 0 min 0,0 UV-I 39 W/m 15,4 km/h (3 Bft)
30.07.2013 19:36 20,3 C 19,6 C 75 % 1015,5 hPa 0,0 l/m 0 min 0 min 0,0 UV-I 30 W/m 15,4 km/h (3 Bft)
30.07.2013 19:38 20,3 C 19,6 C 75 % 1015,5 hPa 0,0 l/m 0 min 0 min 0,0 UV-I 28 W/m 10,3 km/h (2 Bft)
30.07.2013 19:40 20,3 C 19,6 C 75 % 1015,5 hPa 0,0 l/m 0 min 0 min 0,0 UV-I 26 W/m 12,9 km/h (3 Bft)
30.07.2013 19:42 20,2 C 19,6 C 75 % 1015,5 hPa 0,0 l/m 0 min 0 min 0,0 UV-I 28 W/m 7,7 km/h (2 Bft)
30.07.2013 19:44 20,2 C 19,0 C 76 % 1015,4 hPa 0,0 l/m 0 min 0 min 0,0 UV-I 28 W/m 7,7 km/h (2 Bft)
30.07.2013 19:46 20,2 C 19,0 C 76 % 1015,4 hPa 0,0 l/m 0 min 0 min 0,0 UV-I 26 W/m 5,1 km/h (1 Bft)
30.07.2013 19:48 20,2 C 19,0 C 76 % 1015,4 hPa 0,0 l/m 0 min 0 min 0,0 UV-I 35 W/m 18,0 km/h (3 Bft)
30.07.2013 19:50 20,2 C 19,0 C 76 % 1015,5 hPa 0,0 l/m 0 min 0 min 0,0 UV-I 37 W/m 10,3 km/h (2 Bft)
30.07.2013 19:52 20,1 C 19,0 C 77 % 1015,5 hPa 0,0 l/m 0 min 0 min 0,0 UV-I 49 W/m 15,4 km/h (3 Bft)
30.07.2013 19:54 20,1 C 18,4 C 78 % 1015,5 hPa 0,0 l/m 0 min 0 min 0,0 UV-I 51 W/m 12,9 km/h (3 Bft)
30.07.2013 19:56 19,9 C 18,4 C 79 % 1015,7 hPa 0,0 l/m 0 min 0 min 0,0 UV-I 47 W/m 7,7 km/h (2 Bft)
30.07.2013 19:58 19,7 C 17,9 C 80 % 1015,6 hPa 0,0 l/m 0 min 0 min 0,0 UV-I 44 W/m 18,0 km/h (3 Bft)
30.07.2013 20:00 19,5 C 17,9 C 81 % 1015,5 hPa 0,0 l/m 0 min 0 min 0,0 UV-I 46 W/m 15,4 km/h (3 Bft)
30.07.2013 20:02 19,3 C 17,9 C 82 % 1015,6 hPa 0,0 l/m 0 min 0 min 0,0 UV-I 39 W/m 7,7 km/h (2 Bft)
30.07.2013 20:06 19,1 C 17,9 C 83 % 1015,5 hPa 0,0 l/m 0 min 0 min 0,0 UV-I 44 W/m 20,6 km/h (4 Bft)
30.07.2013 20:08 19,0 C 17,9 C 83 % 1015,5 hPa 0,0 l/m 0 min 0 min 0,0 UV-I 39 W/m 7,7 km/h (2 Bft)
30.07.2013 20:10 18,9 C 17,9 C 83 % 1015,4 hPa 0,0 l/m 0 min 0 min 0,0 UV-I 32 W/m 0,0 km/h (0 Bft)
30.07.2013 20:12 18,9 C 17,9 C 83 % 1015,3 hPa 0,0 l/m 0 min 0 min 0,0 UV-I 23 W/m 10,3 km/h (2 Bft)
30.07.2013 20:14 18,9 C 18,4 C 83 % 1015,3 hPa 0,0 l/m 0 min 0 min 0,0 UV-I 14 W/m 15,4 km/h (3 Bft)
30.07.2013 20:16 18,9 C 17,9 C 83 % 1015,2 hPa 0,0 l/m 0 min 0 min 0,0 UV-I 14 W/m 10,3 km/h (2 Bft)
30.07.2013 20:18 18,9 C 17,9 C 83 % 1015,2 hPa 0,0 l/m 0 min 0 min 0,0 UV-I 19 W/m 0,0 km/h (0 Bft)
30.07.2013 20:20 18,9 C 17,9 C 83 % 1015,1 hPa 0,0 l/m 0 min 0 min 0,0 UV-I 21 W/m 2,6 km/h (1 Bft)
30.07.2013 20:22 18,9 C 18,4 C 83 % 1015,1 hPa 0,0 l/m 0 min 0 min 0,0 UV-I 26 W/m 0,0 km/h (0 Bft)
30.07.2013 20:24 18,9 C 18,4 C 83 % 1015,0 hPa 0,0 l/m 0 min 0 min 0,0 UV-I 30 W/m 0,0 km/h (0 Bft)
30.07.2013 20:26 18,9 C 18,4 C 83 % 1015,0 hPa 0,0 l/m 0 min 0 min 0,0 UV-I 32 W/m 0,0 km/h (0 Bft)
30.07.2013 20:28 18,9 C 18,4 C 83 % 1015,0 hPa 0,0 l/m 0 min 2 min 0,0 UV-I 25 W/m 2,6 km/h (1 Bft)
30.07.2013 20:30 19,0 C 17,9 C 84 % 1015,0 hPa 0,0 l/m 0 min 2 min 0,0 UV-I 21 W/m 10,3 km/h (2 Bft)
30.07.2013 20:32 19,0 C 16,8 C 84 % 1015,0 hPa 0,0 l/m 0 min 2 min 0,0 UV-I 21 W/m 2,6 km/h (1 Bft)
30.07.2013 20:34 18,9 C 16,8 C 84 % 1015,0 hPa 0,0 l/m 0 min 2 min 0,0 UV-I 33 W/m 7,7 km/h (2 Bft)
30.07.2013 20:36 18,9 C 16,2 C 85 % 1014,9 hPa 0,0 l/m 0 min 2 min 0,0 UV-I 47 W/m 12,9 km/h (3 Bft)
30.07.2013 20:38 18,8 C 16,2 C 85 % 1014,9 hPa 0,0 l/m 0 min 2 min 0,0 UV-I 33 W/m 7,7 km/h (2 Bft)
30.07.2013 20:40 18,7 C 16,2 C 85 % 1014,9 hPa 0,0 l/m 0 min 2 min 0,0 UV-I 23 W/m 0,0 km/h (0 Bft)
30.07.2013 20:42 18,7 C 16,2 C 86 % 1014,9 hPa 0,0 l/m 0 min 2 min 0,0 UV-I 18 W/m 12,9 km/h (3 Bft)
30.07.2013 20:44 18,6 C 16,2 C 86 % 1014,9 hPa 0,0 l/m 0 min 2 min 0,0 UV-I 19 W/m 2,6 km/h (1 Bft)
30.07.2013 20:46 18,6 C 16,2 C 86 % 1014,9 hPa 0,0 l/m 0 min 2 min 0,0 UV-I 21 W/m 10,3 km/h (2 Bft)
30.07.2013 20:48 18,6 C 16,2 C 86 % 1014,8 hPa 0,0 l/m 0 min 2 min 0,0 UV-I 23 W/m 0,0 km/h (0 Bft)
30.07.2013 20:49 18,6 C 16,2 C 86 % 1014,8 hPa 0,0 l/m 0 min 1 min 0,0 UV-I 21 W/m 2,6 km/h (1 Bft)
30.07.2013 20:50 18,6 C 16,2 C 86 % 1014,8 hPa 0,0 l/m 0 min 1 min 0,0 UV-I 16 W/m 10,3 km/h (2 Bft)
30.07.2013 20:52 18,6 C 16,2 C 86 % 1014,9 hPa 0,0 l/m 0 min 2 min 0,0 UV-I 14 W/m 0,0 km/h (0 Bft)
30.07.2013 20:53 18,6 C 16,2 C 86 % 1014,9 hPa 0,0 l/m 0 min 1 min 0,0 UV-I 11 W/m 0,0 km/h (0 Bft)
30.07.2013 20:54 18,6 C 16,2 C 86 % 1014,9 hPa 0,0 l/m 0 min 1 min 0,0 UV-I 11 W/m 2,6 km/h (1 Bft)
30.07.2013 20:55 18,6 C 16,2 C 86 % 1014,9 hPa 0,0 l/m 0 min 1 min 0,0 UV-I 7 W/m 0,0 km/h (0 Bft)
30.07.2013 20:56 18,6 C 16,2 C 86 % 1014,9 hPa 0,0 l/m 0 min 1 min 0,0 UV-I 5 W/m 12,9 km/h (3 Bft)
30.07.2013 20:57 18,6 C 16,2 C 86 % 1014,9 hPa 0,0 l/m 0 min 1 min 0,0 UV-I 5 W/m 0,0 km/h (0 Bft)
30.07.2013 20:58 18,6 C 16,8 C 86 % 1014,9 hPa 0,0 l/m 0 min 1 min 0,0 UV-I 5 W/m 2,6 km/h (1 Bft)
30.07.2013 20:59 18,6 C 16,8 C 86 % 1014,9 hPa 0,0 l/m 0 min 1 min 0,0 UV-I 5 W/m 10,3 km/h (2 Bft)
30.07.2013 21:00 18,6 C 16,8 C 86 % 1014,9 hPa 0,0 l/m 0 min 1 min 0,0 UV-I 5 W/m 2,6 km/h (1 Bft)
30.07.2013 21:01 18,6 C 16,8 C 86 % 1014,9 hPa 0,0 l/m 0 min 1 min 0,0 UV-I 5 W/m 10,3 km/h (2 Bft)
30.07.2013 21:06 18,6 C 17,3 C 86 % 1014,9 hPa 0,0 l/m 0 min 2 min 0,0 UV-I 5 W/m 0,0 km/h (0 Bft)
30.07.2013 21:08 18,6 C 17,3 C 86 % 1014,9 hPa 0,2 l/m 0 min 2 min 0,0 UV-I 5 W/m 18,0 km/h (3 Bft)
30.07.2013 21:10 18,7 C 17,3 C 85 % 1015,0 hPa 0,0 l/m 0 min 2 min 0,0 UV-I 0 W/m 7,7 km/h (2 Bft)
30.07.2013 21:12 18,7 C 16,8 C 86 % 1015,0 hPa 0,0 l/m 0 min 2 min 0,0 UV-I 0 W/m 12,9 km/h (3 Bft)
30.07.2013 21:14 18,6 C 16,2 C 86 % 1015,0 hPa 0,0 l/m 0 min 2 min 0,0 UV-I 0 W/m 20,6 km/h (4 Bft)
30.07.2013 21:16 18,5 C 16,2 C 86 % 1015,1 hPa 0,0 l/m 0 min 2 min 0,0 UV-I 0 W/m 18,0 km/h (3 Bft)
30.07.2013 21:18 18,4 C 16,2 C 87 % 1015,1 hPa 0,0 l/m 0 min 2 min 0,0 UV-I 0 W/m 12,9 km/h (3 Bft)
30.07.2013 21:20 18,3 C 15,7 C 88 % 1015,1 hPa 0,0 l/m 0 min 2 min 0,0 UV-I 0 W/m 12,9 km/h (3 Bft)
30.07.2013 21:22 18,2 C 15,7 C 88 % 1015,0 hPa 0,2 l/m 0 min 2 min 0,0 UV-I 0 W/m 15,4 km/h (3 Bft)
30.07.2013 21:24 18,1 C 15,7 C 89 % 1014,9 hPa 0,2 l/m 0 min 2 min 0,0 UV-I 0 W/m 7,7 km/h (2 Bft)
30.07.2013 21:26 17,9 C 15,7 C 90 % 1014,8 hPa 0,0 l/m 0 min 2 min 0,0 UV-I 0 W/m 5,1 km/h (1 Bft)
30.07.2013 21:28 17,8 C 15,7 C 91 % 1014,8 hPa 0,0 l/m 0 min 0 min 0,0 UV-I 0 W/m 10,3 km/h (2 Bft)
30.07.2013 21:30 17,7 C 15,7 C 91 % 1014,8 hPa 0,0 l/m 0 min 0 min 0,0 UV-I 0 W/m 12,9 km/h (3 Bft)
30.07.2013 21:32 17,6 C 15,7 C 92 % 1014,7 hPa 0,0 l/m 0 min 0 min 0,0 UV-I 0 W/m 2,6 km/h (1 Bft)
30.07.2013 21:34 17,6 C 15,7 C 93 % 1014,8 hPa 0,0 l/m 0 min 0 min 0,0 UV-I 0 W/m 5,1 km/h (1 Bft)
30.07.2013 21:36 17,4 C 15,7 C 93 % 1014,8 hPa 0,0 l/m 0 min 0 min 0,0 UV-I 0 W/m 0,0 km/h (0 Bft)
30.07.2013 21:38 17,4 C 15,7 C 93 % 1014,7 hPa 0,0 l/m 0 min 0 min 0,0 UV-I 0 W/m 7,7 km/h (2 Bft)
30.07.2013 21:40 17,4 C 15,7 C 93 % 1014,7 hPa 0,0 l/m 0 min 0 min 0,0 UV-I 0 W/m 5,1 km/h (1 Bft)
30.07.2013 21:42 17,3 C 15,7 C 94 % 1014,7 hPa 0,0 l/m 0 min 0 min 0,0 UV-I 0 W/m 20,6 km/h (4 Bft)
30.07.2013 21:44 17,3 C 15,7 C 94 % 1014,7 hPa 0,0 l/m 0 min 0 min 0,0 UV-I 0 W/m 7,7 km/h (2 Bft)
30.07.2013 21:46 17,3 C 15,7 C 94 % 1014,7 hPa 0,0 l/m 0 min 0 min 0,0 UV-I 0 W/m 12,9 km/h (3 Bft)
30.07.2013 21:48 17,3 C 15,7 C 94 % 1014,7 hPa 0,0 l/m 0 min 0 min 0,0 UV-I 0 W/m 2,6 km/h (1 Bft)
30.07.2013 21:50 17,3 C 15,7 C 95 % 1014,7 hPa 0,0 l/m 0 min 0 min 0,0 UV-I 0 W/m 10,3 km/h (2 Bft)
30.07.2013 21:52 17,3 C 15,7 C 95 % 1014,7 hPa 0,0 l/m 0 min 0 min 0,0 UV-I 0 W/m 10,3 km/h (2 Bft)
30.07.2013 21:54 17,3 C 15,7 C 95 % 1014,7 hPa 0,0 l/m 0 min 0 min 0,0 UV-I 0 W/m 7,7 km/h (2 Bft)
30.07.2013 21:56 17,3 C 15,7 C 95 % 1014,7 hPa 0,0 l/m 0 min 0 min 0,0 UV-I 0 W/m 10,3 km/h (2 Bft)
30.07.2013 21:58 17,3 C 15,7 C 95 % 1014,7 hPa 0,0 l/m 0 min 0 min 0,0 UV-I 0 W/m 7,7 km/h (2 Bft)
30.07.2013 22:00 17,3 C 15,7 C 95 % 1014,7 hPa 0,0 l/m 0 min 0 min 0,0 UV-I 0 W/m 7,7 km/h (2 Bft)
30.07.2013 22:02 17,3 C 15,7 C 95 % 1014,7 hPa 0,0 l/m 0 min 0 min 0,0 UV-I 0 W/m 5,1 km/h (1 Bft)
30.07.2013 22:06 17,3 C 15,7 C 96 % 1014,7 hPa 0,0 l/m 0 min 0 min 0,0 UV-I 0 W/m 15,4 km/h (3 Bft)
30.07.2013 22:08 17,3 C 15,7 C 96 % 1014,7 hPa 0,0 l/m 0 min 0 min 0,0 UV-I 0 W/m 12,9 km/h (3 Bft)
30.07.2013 22:10 17,3 C 15,7 C 96 % 1014,7 hPa 0,0 l/m 0 min 0 min 0,0 UV-I 0 W/m 5,1 km/h (1 Bft)
30.07.2013 22:12 17,3 C 15,7 C 95 % 1014,7 hPa 0,0 l/m 0 min 0 min 0,0 UV-I 0 W/m 7,7 km/h (2 Bft)
30.07.2013 22:14 17,3 C 15,7 C 96 % 1014,7 hPa 0,0 l/m 0 min 0 min 0,0 UV-I 0 W/m 7,7 km/h (2 Bft)
30.07.2013 22:16 17,3 C 15,7 C 96 % 1014,8 hPa 0,0 l/m 0 min 0 min 0,0 UV-I 0 W/m 5,1 km/h (1 Bft)
30.07.2013 22:18 17,3 C 15,7 C 96 % 1014,8 hPa 0,0 l/m 0 min 0 min 0,0 UV-I 0 W/m 12,9 km/h (3 Bft)
30.07.2013 22:20 17,3 C 15,7 C 96 % 1014,7 hPa 0,0 l/m 0 min 0 min 0,0 UV-I 0 W/m 7,7 km/h (2 Bft)
30.07.2013 22:22 17,3 C 16,2 C 96 % 1014,7 hPa 0,0 l/m 0 min 0 min 0,0 UV-I 0 W/m 7,7 km/h (2 Bft)
30.07.2013 22:24 17,4 C 16,2 C 96 % 1014,7 hPa 0,0 l/m 0 min 0 min 0,0 UV-I 0 W/m 2,6 km/h (1 Bft)
30.07.2013 22:26 17,4 C 15,7 C 96 % 1014,7 hPa 0,0 l/m 0 min 0 min 0,0 UV-I 0 W/m 2,6 km/h (1 Bft)
30.07.2013 22:28 17,4 C 15,7 C 96 % 1014,7 hPa 0,0 l/m 0 min 0 min 0,0 UV-I 0 W/m 5,1 km/h (1 Bft)
30.07.2013 22:30 17,4 C 15,7 C 96 % 1014,6 hPa 0,0 l/m 0 min 0 min 0,0 UV-I 0 W/m 10,3 km/h (2 Bft)
30.07.2013 22:32 17,4 C 15,7 C 96 % 1014,6 hPa 0,0 l/m 0 min 0 min 0,0 UV-I 0 W/m 10,3 km/h (2 Bft)
30.07.2013 22:34 17,4 C 16,2 C 96 % 1014,6 hPa 0,0 l/m 0 min 0 min 0,0 UV-I 0 W/m 5,1 km/h (1 Bft)
30.07.2013 22:36 17,4 C 16,2 C 96 % 1014,6 hPa 0,0 l/m 0 min 0 min 0,0 UV-I 0 W/m 12,9 km/h (3 Bft)
30.07.2013 22:38 17,4 C 16,2 C 96 % 1014,6 hPa 0,0 l/m 0 min 0 min 0,0 UV-I 0 W/m 10,3 km/h (2 Bft)
30.07.2013 22:40 17,4 C 16,2 C 96 % 1014,6 hPa 0,0 l/m 0 min 2 min 0,0 UV-I 0 W/m 7,7 km/h (2 Bft)
30.07.2013 22:42 17,5 C 16,2 C 96 % 1014,6 hPa 0,0 l/m 0 min 2 min 0,0 UV-I 0 W/m 10,3 km/h (2 Bft)
30.07.2013 22:44 17,5 C 16,2 C 96 % 1014,7 hPa 0,0 l/m 0 min 2 min 0,0 UV-I 0 W/m 15,4 km/h (3 Bft)
30.07.2013 22:46 17,5 C 16,2 C 96 % 1014,6 hPa 0,2 l/m 0 min 2 min 0,0 UV-I 0 W/m 12,9 km/h (3 Bft)
30.07.2013 22:48 17,6 C 16,2 C 96 % 1014,6 hPa 0,0 l/m 0 min 2 min 0,0 UV-I 0 W/m 10,3 km/h (2 Bft)
30.07.2013 22:50 17,6 C 16,2 C 96 % 1014,6 hPa 0,0 l/m 0 min 2 min 0,0 UV-I 0 W/m 12,9 km/h (3 Bft)
30.07.2013 22:52 17,6 C 16,2 C 96 % 1014,6 hPa 0,0 l/m 0 min 2 min 0,0 UV-I 0 W/m 18,0 km/h (3 Bft)
30.07.2013 22:54 17,6 C 16,2 C 96 % 1014,5 hPa 0,0 l/m 0 min 2 min 0,0 UV-I 0 W/m 5,1 km/h (1 Bft)
30.07.2013 22:56 17,6 C 16,2 C 96 % 1014,5 hPa 0,0 l/m 0 min 0 min 0,0 UV-I 0 W/m 15,4 km/h (3 Bft)
30.07.2013 22:58 17,6 C 16,2 C 96 % 1014,5 hPa 0,0 l/m 0 min 0 min 0,0 UV-I 0 W/m 25,7 km/h (4 Bft)
30.07.2013 23:00 17,6 C 16,2 C 96 % 1014,4 hPa 0,0 l/m 0 min 0 min 0,0 UV-I 0 W/m 12,9 km/h (3 Bft)
30.07.2013 23:02 17,6 C 16,2 C 96 % 1014,4 hPa 0,0 l/m 0 min 0 min 0,0 UV-I 0 W/m 20,6 km/h (4 Bft)
30.07.2013 23:06 17,6 C 16,2 C 96 % 1014,5 hPa 0,0 l/m 0 min 0 min 0,0 UV-I 0 W/m 15,4 km/h (3 Bft)
30.07.2013 23:08 17,5 C 16,2 C 96 % 1014,5 hPa 0,0 l/m 0 min 0 min 0,0 UV-I 0 W/m 12,9 km/h (3 Bft)
30.07.2013 23:10 17,5 C 16,2 C 96 % 1014,5 hPa 0,0 l/m 0 min 0 min 0,0 UV-I 0 W/m 18,0 km/h (3 Bft)
30.07.2013 23:12 17,5 C 16,2 C 96 % 1014,5 hPa 0,0 l/m 0 min 0 min 0,0 UV-I 0 W/m 15,4 km/h (3 Bft)
30.07.2013 23:14 17,5 C 16,2 C 96 % 1014,4 hPa 0,0 l/m 0 min 0 min 0,0 UV-I 0 W/m 12,9 km/h (3 Bft)
30.07.2013 23:16 17,5 C 16,2 C 96 % 1014,5 hPa 0,0 l/m 0 min 0 min 0,0 UV-I 0 W/m 15,4 km/h (3 Bft)
30.07.2013 23:18 17,5 C 15,7 C 96 % 1014,4 hPa 0,0 l/m 0 min 0 min 0,0 UV-I 0 W/m 2,6 km/h (1 Bft)
30.07.2013 23:20 17,4 C 16,2 C 97 % 1014,5 hPa 0,0 l/m 0 min 0 min 0,0 UV-I 0 W/m 10,3 km/h (2 Bft)
30.07.2013 23:22 17,4 C 16,2 C 97 % 1014,5 hPa 0,0 l/m 0 min 0 min 0,0 UV-I 0 W/m 10,3 km/h (2 Bft)
30.07.2013 23:24 17,4 C 16,2 C 97 % 1014,5 hPa 0,0 l/m 0 min 0 min 0,0 UV-I 0 W/m 12,9 km/h (3 Bft)
30.07.2013 23:26 17,5 C 16,2 C 97 % 1014,5 hPa 0,0 l/m 0 min 0 min 0,0 UV-I 0 W/m 12,9 km/h (3 Bft)
30.07.2013 23:28 17,5 C 16,2 C 97 % 1014,5 hPa 0,0 l/m 0 min 0 min 0,0 UV-I 0 W/m 12,9 km/h (3 Bft)
30.07.2013 23:30 17,6 C 16,2 C 97 % 1014,4 hPa 0,0 l/m 0 min 0 min 0,0 UV-I 0 W/m 23,2 km/h (4 Bft)
30.07.2013 23:32 17,6 C 16,2 C 97 % 1014,4 hPa 0,0 l/m 0 min 0 min 0,0 UV-I 0 W/m 5,1 km/h (1 Bft)
30.07.2013 23:34 17,6 C 16,2 C 97 % 1014,3 hPa 0,0 l/m 0 min 0 min 0,0 UV-I 0 W/m 10,3 km/h (2 Bft)
30.07.2013 23:36 17,6 C 16,2 C 97 % 1014,3 hPa 0,0 l/m 0 min 0 min 0,0 UV-I 0 W/m 12,9 km/h (3 Bft)
30.07.2013 23:38 17,6 C 16,2 C 97 % 1014,4 hPa 0,0 l/m 0 min 0 min 0,0 UV-I 0 W/m 12,9 km/h (3 Bft)
30.07.2013 23:40 17,7 C 16,2 C 97 % 1014,3 hPa 0,0 l/m 0 min 0 min 0,0 UV-I 0 W/m 5,1 km/h (1 Bft)
30.07.2013 23:42 17,7 C 16,2 C 97 % 1014,3 hPa 0,0 l/m 0 min 0 min 0,0 UV-I 0 W/m 12,9 km/h (3 Bft)
30.07.2013 23:44 17,7 C 16,2 C 97 % 1014,3 hPa 0,0 l/m 0 min 0 min 0,0 UV-I 0 W/m 10,3 km/h (2 Bft)
30.07.2013 23:46 17,7 C 16,2 C 97 % 1014,3 hPa 0,0 l/m 0 min 0 min 0,0 UV-I 0 W/m 10,3 km/h (2 Bft)
30.07.2013 23:48 17,8 C 16,2 C 97 % 1014,3 hPa 0,0 l/m 0 min 0 min 0,0 UV-I 0 W/m 20,6 km/h (4 Bft)
30.07.2013 23:50 17,8 C 16,2 C 97 % 1014,4 hPa 0,0 l/m 0 min 0 min 0,0 UV-I 0 W/m 25,7 km/h (4 Bft)
30.07.2013 23:52 17,8 C 16,2 C 97 % 1014,3 hPa 0,0 l/m 0 min 0 min 0,0 UV-I 0 W/m 10,3 km/h (2 Bft)
30.07.2013 23:54 17,8 C 16,2 C 97 % 1014,4 hPa 0,0 l/m 0 min 0 min 0,0 UV-I 0 W/m 5,1 km/h (1 Bft)
30.07.2013 23:56 17,8 C 16,2 C 97 % 1014,3 hPa 0,0 l/m 0 min 0 min 0,0 UV-I 0 W/m 7,7 km/h (2 Bft)
30.07.2013 23:58 17,9 C 16,2 C 97 % 1014,3 hPa 0,0 l/m 0 min 0 min 0,0 UV-I 0 W/m 7,7 km/h (2 Bft)
_ Min-Zeit 06:12 05:20 14:14 23:34 - - - - - 00:00
Minimum _ 15,2 C 14,6 C 64 % 1014,3 hPa - - - - - 0,0 km/h (0 Bft)
_ Max-Zeit 13:14 10:14 23:20 08:48 21:08 08:16 20:28 12:00 13:10 10:38
Maximum _ 23,2 C 27,3 C 97 % 1018,2 hPa 0,2 l/m 2 min 2 min 4,8 UV-I 962 W/m 30,9 km/h
S-SW (5 Bft)
Durchschnitt _ 19,0 C 18,7 C 80 % 1016,8 hPa #0,8 l/m #4:26 h #1:13 h 1,8 UV-I 265 W/m 9,9 km/h (2 Bft)
© 2013 W. Hausmann